Wetterdaten: Sonntag, 16.12.2018
Datum Zeit Temp. Aussen Temp. o. S. +5cm Feuchte Auss Luftdruck Regen Sonnenschein Regendauer Solar Windben Empfang
16.12.2018 00:00 0,0 C -0,6 C -1,1 C 76 % 1011,8 hPa 0,0 l/m 0 min 0 min 0 W/m 38,6 km/h (5 Bft) 93,48 %
16.12.2018 00:02 0,0 C -0,6 C -1,1 C 76 % 1011,8 hPa 0,0 l/m 0 min 0 min 0 W/m 25,7 km/h (4 Bft) 86,11 %
16.12.2018 00:04 0,0 C -0,6 C -1,1 C 76 % 1011,7 hPa 0,0 l/m 0 min 0 min 0 W/m 38,6 km/h (5 Bft) 95,74 %
16.12.2018 00:07 0,0 C -0,6 C -1,1 C 76 % 1011,8 hPa 0,0 l/m 0 min 0 min 0 W/m 48,3 km/h (6 Bft) 95,71 %
16.12.2018 00:08 0,0 C -0,6 C -1,1 C 76 % 1011,9 hPa 0,0 l/m 0 min 0 min 0 W/m 32,2 km/h (5 Bft) 95,83 %
16.12.2018 00:10 0,0 C -0,6 C -1,1 C 76 % 1011,8 hPa 0,0 l/m 0 min 0 min 0 W/m 38,6 km/h (5 Bft) 93,62 %
16.12.2018 00:12 0,0 C -0,6 C -1,1 C 76 % 1011,7 hPa 0,0 l/m 0 min 0 min 0 W/m 35,4 km/h (5 Bft) 91,30 %
16.12.2018 00:14 0,0 C -0,6 C -1,1 C 76 % 1011,7 hPa 0,0 l/m 0 min 0 min 0 W/m 32,2 km/h (5 Bft) 93,62 %
16.12.2018 00:16 0,0 C -0,6 C -1,1 C 76 % 1011,7 hPa 0,0 l/m 0 min 0 min 0 W/m 41,8 km/h (6 Bft) 95,74 %
16.12.2018 00:18 0,0 C -0,6 C -1,1 C 76 % 1011,9 hPa 0,0 l/m 0 min 0 min 0 W/m 45,1 km/h (6 Bft) 91,49 %
16.12.2018 00:20 0,1 C -0,6 C -1,1 C 75 % 1011,8 hPa 0,0 l/m 0 min 0 min 0 W/m 45,1 km/h (6 Bft) 93,62 %
16.12.2018 00:22 0,1 C -0,6 C -1,1 C 76 % 1012,0 hPa 0,0 l/m 0 min 0 min 0 W/m 51,5 km/h (7 Bft) 93,62 %
16.12.2018 00:24 0,1 C -0,6 C -1,1 C 76 % 1011,9 hPa 0,0 l/m 0 min 0 min 0 W/m 32,2 km/h (5 Bft) 93,48 %
16.12.2018 00:26 0,1 C -0,6 C -1,1 C 76 % 1012,0 hPa 0,0 l/m 0 min 0 min 0 W/m 41,8 km/h (6 Bft) 93,62 %
16.12.2018 00:28 0,1 C -0,6 C -1,1 C 76 % 1011,9 hPa 0,0 l/m 0 min 0 min 0 W/m 45,1 km/h (6 Bft) 93,62 %
16.12.2018 00:30 0,1 C -0,6 C -1,1 C 76 % 1012,0 hPa 0,0 l/m 0 min 0 min 0 W/m 35,4 km/h (5 Bft) 89,36 %
16.12.2018 00:32 0,1 C -0,6 C -1,1 C 75 % 1012,0 hPa 0,0 l/m 0 min 0 min 0 W/m 25,7 km/h (4 Bft) 93,62 %
16.12.2018 00:34 0,1 C -0,6 C -1,1 C 75 % 1012,0 hPa 0,0 l/m 0 min 0 min 0 W/m 32,2 km/h (5 Bft) 93,62 %
16.12.2018 00:36 0,1 C -0,6 C -1,1 C 75 % 1012,1 hPa 0,0 l/m 0 min 0 min 0 W/m 32,2 km/h (5 Bft) 91,30 %
16.12.2018 00:38 0,1 C -0,6 C -1,1 C 75 % 1012,1 hPa 0,0 l/m 0 min 0 min 0 W/m 38,6 km/h (5 Bft) 94,44 %
16.12.2018 00:40 0,1 C -0,6 C -1,1 C 76 % 1012,1 hPa 0,0 l/m 0 min 0 min 0 W/m 35,4 km/h (5 Bft) 93,62 %
16.12.2018 00:42 0,1 C 0,0 C -1,1 C 76 % 1012,1 hPa 0,0 l/m 0 min 0 min 0 W/m 35,4 km/h (5 Bft) 95,65 %
16.12.2018 00:44 0,1 C 0,0 C -1,1 C 75 % 1012,1 hPa 0,0 l/m 0 min 0 min 0 W/m 35,4 km/h (5 Bft) 91,49 %
16.12.2018 00:46 0,1 C -0,6 C -1,1 C 75 % 1012,1 hPa 0,0 l/m 0 min 0 min 0 W/m 35,4 km/h (5 Bft) 93,62 %
16.12.2018 00:48 0,1 C 0,0 C -1,1 C 76 % 1012,1 hPa 0,0 l/m 0 min 0 min 0 W/m 35,4 km/h (5 Bft) 95,74 %
16.12.2018 00:50 0,1 C 0,0 C -1,1 C 76 % 1012,1 hPa 0,0 l/m 0 min 0 min 0 W/m 29,0 km/h (5 Bft) 97,87 %
16.12.2018 00:52 0,1 C -0,6 C -1,1 C 76 % 1012,0 hPa 0,0 l/m 0 min 0 min 0 W/m 32,2 km/h (5 Bft) 93,62 %
16.12.2018 00:54 0,1 C -0,6 C -1,1 C 76 % 1012,0 hPa 0,0 l/m 0 min 0 min 0 W/m 32,2 km/h (5 Bft) 97,83 %
16.12.2018 00:56 0,1 C -0,6 C -1,1 C 76 % 1012,0 hPa 0,0 l/m 0 min 0 min 0 W/m 29,0 km/h (5 Bft) 97,87 %
16.12.2018 00:58 0,1 C -0,6 C -1,1 C 76 % 1011,9 hPa 0,0 l/m 0 min 0 min 0 W/m 32,2 km/h (5 Bft) 95,74 %
16.12.2018 01:00 0,1 C 0,0 C -1,1 C 76 % 1011,9 hPa 0,0 l/m 0 min 0 min 0 W/m 45,1 km/h (6 Bft) 95,74 %
16.12.2018 01:02 0,1 C 0,0 C -1,1 C 76 % 1011,9 hPa 0,0 l/m 0 min 0 min 0 W/m 25,7 km/h (4 Bft) 97,87 %
16.12.2018 01:04 0,2 C 0,0 C -1,1 C 76 % 1011,8 hPa 0,0 l/m 0 min 0 min 0 W/m 45,1 km/h (6 Bft) 100,00 %
16.12.2018 01:06 0,2 C 0,0 C -1,1 C 76 % 1011,7 hPa 0,0 l/m 0 min 0 min 0 W/m 45,1 km/h (6 Bft) 97,83 %
16.12.2018 01:08 0,2 C 0,0 C -1,1 C 76 % 1011,6 hPa 0,0 l/m 0 min 0 min 0 W/m 32,2 km/h (5 Bft) 100,00 %
16.12.2018 01:10 0,2 C 0,0 C -1,1 C 76 % 1011,6 hPa 0,0 l/m 0 min 0 min 0 W/m 29,0 km/h (5 Bft) 100,00 %
16.12.2018 01:12 0,2 C 0,0 C -1,1 C 76 % 1011,7 hPa 0,0 l/m 0 min 0 min 0 W/m 38,6 km/h (5 Bft) 100,00 %
16.12.2018 01:14 0,2 C 0,0 C -0,6 C 76 % 1011,9 hPa 0,0 l/m 0 min 0 min 0 W/m 45,1 km/h (6 Bft) 100,00 %
16.12.2018 01:16 0,2 C 0,0 C -0,6 C 76 % 1011,8 hPa 0,0 l/m 0 min 0 min 0 W/m 45,1 km/h (6 Bft) 97,87 %
16.12.2018 01:18 0,2 C 0,0 C -0,6 C 75 % 1011,8 hPa 0,0 l/m 0 min 0 min 0 W/m 38,6 km/h (5 Bft) 100,00 %
16.12.2018 01:20 0,2 C 0,0 C -0,6 C 75 % 1011,7 hPa 0,0 l/m 0 min 0 min 0 W/m 32,2 km/h (5 Bft) 100,00 %
16.12.2018 01:22 0,2 C 0,0 C -0,6 C 75 % 1011,6 hPa 0,0 l/m 0 min 0 min 0 W/m 29,0 km/h (5 Bft) 100,00 %
16.12.2018 01:24 0,2 C 0,0 C -0,6 C 75 % 1011,4 hPa 0,0 l/m 0 min 0 min 0 W/m 32,2 km/h (5 Bft) 100,00 %
16.12.2018 01:26 0,2 C 0,0 C -0,6 C 75 % 1011,5 hPa 0,0 l/m 0 min 0 min 0 W/m 38,6 km/h (5 Bft) 100,00 %
16.12.2018 01:28 0,2 C 0,0 C -0,6 C 75 % 1011,4 hPa 0,0 l/m 0 min 0 min 0 W/m 38,6 km/h (5 Bft) 100,00 %
16.12.2018 01:30 0,2 C 0,0 C -0,6 C 75 % 1011,3 hPa 0,0 l/m 0 min 0 min 0 W/m 32,2 km/h (5 Bft) 100,00 %
16.12.2018 01:32 0,2 C 0,0 C -0,6 C 75 % 1011,3 hPa 0,0 l/m 0 min 0 min 0 W/m 45,1 km/h (6 Bft) 97,87 %
16.12.2018 01:34 0,2 C 0,0 C -0,6 C 75 % 1011,5 hPa 0,0 l/m 0 min 0 min 0 W/m 25,7 km/h (4 Bft) 100,00 %
16.12.2018 01:36 0,2 C 0,0 C -0,6 C 75 % 1011,3 hPa 0,0 l/m 0 min 0 min 0 W/m 35,4 km/h (5 Bft) 100,00 %
16.12.2018 01:38 0,2 C 0,0 C -0,6 C 75 % 1011,3 hPa 0,0 l/m 0 min 0 min 0 W/m 41,8 km/h (6 Bft) 100,00 %
16.12.2018 01:40 0,2 C 0,0 C -0,6 C 75 % 1011,3 hPa 0,0 l/m 0 min 0 min 0 W/m 35,4 km/h (5 Bft) 100,00 %
16.12.2018 01:42 0,2 C 0,0 C -0,6 C 75 % 1011,2 hPa 0,0 l/m 0 min 0 min 0 W/m 29,0 km/h (5 Bft) 97,87 %
16.12.2018 01:44 0,2 C 0,0 C -0,6 C 75 % 1011,3 hPa 0,0 l/m 0 min 0 min 0 W/m 32,2 km/h (5 Bft) 100,00 %
16.12.2018 01:46 0,3 C 0,0 C -0,6 C 75 % 1011,2 hPa 0,0 l/m 0 min 0 min 0 W/m 38,6 km/h (5 Bft) 100,00 %
16.12.2018 01:48 0,3 C 0,0 C -0,6 C 75 % 1011,2 hPa 0,0 l/m 0 min 0 min 0 W/m 32,2 km/h (5 Bft) 100,00 %
16.12.2018 01:50 0,3 C 0,0 C -0,6 C 75 % 1011,2 hPa 0,0 l/m 0 min 0 min 0 W/m 32,2 km/h (5 Bft) 100,00 %
16.12.2018 01:52 0,3 C 0,0 C -0,6 C 75 % 1011,2 hPa 0,0 l/m 0 min 0 min 0 W/m 25,7 km/h (4 Bft) 100,00 %
16.12.2018 01:54 0,3 C 0,0 C -0,6 C 75 % 1011,2 hPa 0,0 l/m 0 min 0 min 0 W/m 35,4 km/h (5 Bft) 100,00 %
16.12.2018 01:56 0,3 C 0,0 C -0,6 C 75 % 1011,1 hPa 0,0 l/m 0 min 0 min 0 W/m 41,8 km/h (6 Bft) 100,00 %
16.12.2018 01:58 0,3 C 0,0 C -0,6 C 75 % 1011,2 hPa 0,0 l/m 0 min 0 min 0 W/m 32,2 km/h (5 Bft) 100,00 %
16.12.2018 02:00 0,3 C 0,0 C -0,6 C 75 % 1011,1 hPa 0,0 l/m 0 min 0 min 0 W/m 35,4 km/h (5 Bft) 100,00 %
16.12.2018 02:02 0,3 C 0,0 C -0,6 C 75 % 1011,2 hPa 0,0 l/m 0 min 0 min 0 W/m 35,4 km/h (5 Bft) 100,00 %
16.12.2018 02:04 0,3 C 0,0 C -0,6 C 75 % 1011,1 hPa 0,0 l/m 0 min 0 min 0 W/m 22,5 km/h (4 Bft) 100,00 %
16.12.2018 02:06 0,3 C 0,0 C -0,6 C 75 % 1011,1 hPa 0,0 l/m 0 min 0 min 0 W/m 38,6 km/h (5 Bft) 97,87 %
16.12.2018 02:08 0,3 C 0,0 C -0,6 C 76 % 1011,1 hPa 0,0 l/m 0 min 0 min 0 W/m 32,2 km/h (5 Bft) 97,87 %
16.12.2018 02:10 0,3 C 0,0 C -0,6 C 76 % 1011,2 hPa 0,0 l/m 0 min 0 min 0 W/m 41,8 km/h (6 Bft) 97,87 %
16.12.2018 02:12 0,3 C 0,0 C -0,6 C 76 % 1011,2 hPa 0,0 l/m 0 min 0 min 0 W/m 29,0 km/h (5 Bft) 100,00 %
16.12.2018 02:14 0,3 C 0,0 C -0,6 C 76 % 1011,1 hPa 0,0 l/m 0 min 0 min 0 W/m 32,2 km/h (5 Bft) 100,00 %
16.12.2018 02:16 0,3 C 0,0 C -0,6 C 76 % 1011,1 hPa 0,0 l/m 0 min 0 min 0 W/m 22,5 km/h (4 Bft) 100,00 %
16.12.2018 02:18 0,3 C 0,0 C -0,6 C 76 % 1011,1 hPa 0,0 l/m 0 min 0 min 0 W/m 25,7 km/h (4 Bft) 100,00 %
16.12.2018 02:20 0,3 C 0,0 C -0,6 C 76 % 1011,1 hPa 0,0 l/m 0 min 0 min 0 W/m 25,7 km/h (4 Bft) 100,00 %
16.12.2018 02:22 0,3 C 0,0 C -0,6 C 76 % 1011,0 hPa 0,0 l/m 0 min 0 min 0 W/m 22,5 km/h (4 Bft) 100,00 %
16.12.2018 02:24 0,3 C 0,0 C -0,6 C 76 % 1011,0 hPa 0,0 l/m 0 min 0 min 0 W/m 38,6 km/h (5 Bft) 100,00 %
16.12.2018 02:26 0,3 C 0,0 C -0,6 C 76 % 1011,1 hPa 0,0 l/m 0 min 0 min 0 W/m 22,5 km/h (4 Bft) 100,00 %
16.12.2018 02:28 0,3 C 0,0 C -0,6 C 76 % 1011,1 hPa 0,0 l/m 0 min 0 min 0 W/m 35,4 km/h (5 Bft) 100,00 %
16.12.2018 02:30 0,3 C 0,0 C -0,6 C 76 % 1011,1 hPa 0,0 l/m 0 min 0 min 0 W/m 51,5 km/h (7 Bft) 97,87 %
16.12.2018 02:32 0,3 C 0,0 C -0,6 C 77 % 1011,0 hPa 0,0 l/m 0 min 0 min 0 W/m 19,3 km/h (3 Bft) 100,00 %
16.12.2018 02:34 0,3 C -0,6 C -0,6 C 77 % 1010,9 hPa 0,0 l/m 0 min 0 min 0 W/m 38,6 km/h (5 Bft) 100,00 %
16.12.2018 02:36 0,3 C -0,6 C -1,1 C 78 % 1010,9 hPa 0,0 l/m 0 min 0 min 0 W/m 41,8 km/h (6 Bft) 97,87 %
16.12.2018 02:38 0,3 C -0,6 C -1,1 C 79 % 1010,8 hPa 0,0 l/m 0 min 0 min 0 W/m 29,0 km/h (5 Bft) 97,87 %
16.12.2018 02:40 0,2 C -0,6 C -1,1 C 80 % 1010,9 hPa 0,0 l/m 0 min 0 min 0 W/m 25,7 km/h (4 Bft) 97,83 %
16.12.2018 02:42 0,2 C -0,6 C -1,1 C 80 % 1010,8 hPa 0,0 l/m 0 min 0 min 0 W/m 19,3 km/h (3 Bft) 100,00 %
16.12.2018 02:44 0,1 C -0,6 C -1,1 C 81 % 1010,8 hPa 0,0 l/m 0 min 0 min 0 W/m 29,0 km/h (5 Bft) 100,00 %
16.12.2018 02:46 0,1 C -0,6 C -1,1 C 81 % 1010,6 hPa 0,0 l/m 0 min 0 min 0 W/m 38,6 km/h (5 Bft) 95,74 %
16.12.2018 02:48 0,0 C -0,6 C -1,1 C 82 % 1010,6 hPa 0,0 l/m 0 min 0 min 0 W/m 29,0 km/h (5 Bft) 97,87 %
16.12.2018 02:50 0,0 C -0,6 C -1,1 C 82 % 1010,6 hPa 0,0 l/m 0 min 0 min 0 W/m 41,8 km/h (6 Bft) 95,74 %
16.12.2018 02:52 -0,1 C -0,6 C -1,1 C 82 % 1010,5 hPa 0,0 l/m 0 min 0 min 0 W/m 16,1 km/h (3 Bft) 97,83 %
16.12.2018 02:54 -0,1 C -0,6 C -1,1 C 83 % 1010,4 hPa 0,0 l/m 0 min 0 min 0 W/m 19,3 km/h (3 Bft) 93,62 %
16.12.2018 02:56 -0,1 C -0,6 C -1,1 C 83 % 1010,4 hPa 0,0 l/m 0 min 0 min 0 W/m 35,4 km/h (5 Bft) 95,74 %
16.12.2018 02:58 -0,2 C -0,6 C -1,1 C 83 % 1010,5 hPa 0,0 l/m 0 min 0 min 0 W/m 29,0 km/h (5 Bft) 93,62 %
16.12.2018 03:00 -0,2 C -0,6 C -1,1 C 84 % 1010,5 hPa 0,0 l/m 0 min 0 min 0 W/m 35,4 km/h (5 Bft) 95,74 %
16.12.2018 03:02 -0,2 C -0,6 C -1,1 C 84 % 1010,4 hPa 0,0 l/m 0 min 0 min 0 W/m 29,0 km/h (5 Bft) 95,65 %
16.12.2018 03:04 -0,3 C -0,6 C -1,1 C 84 % 1010,3 hPa 0,0 l/m 0 min 0 min 0 W/m 35,4 km/h (5 Bft) 93,62 %
16.12.2018 03:06 -0,3 C -0,6 C -1,7 C 84 % 1010,3 hPa 0,0 l/m 0 min 0 min 0 W/m 35,4 km/h (5 Bft) 95,74 %
16.12.2018 03:08 -0,3 C -0,6 C -1,7 C 85 % 1010,3 hPa 0,0 l/m 0 min 0 min 0 W/m 19,3 km/h (3 Bft) 95,83 %
16.12.2018 03:10 -0,3 C -0,6 C -1,1 C 85 % 1010,2 hPa 0,0 l/m 0 min 0 min 0 W/m 35,4 km/h (5 Bft) 95,74 %
16.12.2018 03:12 -0,3 C -0,6 C -1,1 C 85 % 1010,2 hPa 0,0 l/m 0 min 0 min 0 W/m 29,0 km/h (5 Bft) 95,74 %
16.12.2018 03:14 -0,4 C -1,1 C -1,7 C 85 % 1010,2 hPa 0,0 l/m 0 min 0 min 0 W/m 22,5 km/h (4 Bft) 93,48 %
16.12.2018 03:16 -0,4 C -1,1 C -1,7 C 85 % 1010,0 hPa 0,0 l/m 0 min 0 min 0 W/m 32,2 km/h (5 Bft) 95,74 %
16.12.2018 03:18 -0,4 C -1,1 C -1,7 C 86 % 1010,0 hPa 0,0 l/m 0 min 0 min 0 W/m 25,7 km/h (4 Bft) 93,62 %
16.12.2018 03:20 -0,4 C -1,1 C -1,7 C 86 % 1010,0 hPa 0,0 l/m 0 min 0 min 0 W/m 35,4 km/h (5 Bft) 93,62 %
16.12.2018 03:22 -0,4 C -1,1 C -1,7 C 86 % 1010,0 hPa 0,0 l/m 0 min 0 min 0 W/m 22,5 km/h (4 Bft) 95,74 %
16.12.2018 03:24 -0,4 C -1,1 C -1,7 C 86 % 1010,0 hPa 0,0 l/m 0 min 0 min 0 W/m 35,4 km/h (5 Bft) 95,74 %
16.12.2018 03:26 -0,4 C -1,1 C -1,7 C 86 % 1009,9 hPa 0,0 l/m 0 min 2 min 0 W/m 29,0 km/h (5 Bft) 93,48 %
16.12.2018 03:28 -0,4 C -1,1 C -1,7 C 86 % 1009,9 hPa 0,0 l/m 0 min 0 min 0 W/m 16,1 km/h (3 Bft) 93,62 %
16.12.2018 03:30 -0,4 C -1,1 C -1,7 C 86 % 1009,9 hPa 0,0 l/m 0 min 0 min 0 W/m 35,4 km/h (5 Bft) 95,74 %
16.12.2018 03:32 -0,4 C -1,7 C -1,7 C 86 % 1009,9 hPa 0,0 l/m 0 min 0 min 0 W/m 22,5 km/h (4 Bft) 97,87 %
16.12.2018 03:34 -0,4 C -1,7 C -1,7 C 87 % 1009,9 hPa 0,0 l/m 0 min 0 min 0 W/m 29,0 km/h (5 Bft) 95,74 %
16.12.2018 03:36 -0,5 C -1,7 C -1,7 C 87 % 1009,9 hPa 0,0 l/m 0 min 0 min 0 W/m 32,2 km/h (5 Bft) 95,74 %
16.12.2018 03:38 -0,5 C -1,7 C -1,7 C 87 % 1009,8 hPa 0,0 l/m 0 min 0 min 0 W/m 38,6 km/h (5 Bft) 95,65 %
16.12.2018 03:40 -0,5 C -1,7 C -1,7 C 87 % 1009,7 hPa 0,0 l/m 0 min 0 min 0 W/m 25,7 km/h (4 Bft) 97,87 %
16.12.2018 03:42 -0,6 C -1,7 C -1,7 C 87 % 1009,7 hPa 0,0 l/m 0 min 2 min 0 W/m 29,0 km/h (5 Bft) 97,87 %
16.12.2018 03:44 -0,6 C -1,7 C -1,7 C 88 % 1009,8 hPa 0,0 l/m 0 min 2 min 0 W/m 32,2 km/h (5 Bft) 97,87 %
16.12.2018 03:46 -0,6 C -1,7 C -1,7 C 88 % 1009,7 hPa 0,0 l/m 0 min 2 min 0 W/m 16,1 km/h (3 Bft) 97,87 %
16.12.2018 03:48 -0,6 C -1,7 C -1,7 C 88 % 1009,6 hPa 0,0 l/m 0 min 0 min 0 W/m 29,0 km/h (5 Bft) 95,74 %
16.12.2018 03:50 -0,6 C -1,7 C -1,7 C 88 % 1009,7 hPa 0,0 l/m 0 min 0 min 0 W/m 22,5 km/h (4 Bft) 97,83 %
16.12.2018 03:52 -0,6 C -1,7 C -1,7 C 88 % 1009,5 hPa 0,0 l/m 0 min 2 min 0 W/m 19,3 km/h (3 Bft) 97,87 %
16.12.2018 03:54 -0,6 C -1,7 C -1,7 C 89 % 1009,4 hPa 0,0 l/m 0 min 2 min 0 W/m 22,5 km/h (4 Bft) 97,87 %
16.12.2018 03:56 -0,7 C -1,7 C -1,7 C 89 % 1009,5 hPa 0,0 l/m 0 min 0 min 0 W/m 25,7 km/h (4 Bft) 97,87 %
16.12.2018 03:58 -0,7 C -1,7 C -1,7 C 89 % 1009,5 hPa 0,0 l/m 0 min 2 min 0 W/m 25,7 km/h (4 Bft) 97,87 %
16.12.2018 04:00 -0,7 C -1,7 C -1,7 C 89 % 1009,5 hPa 0,0 l/m 0 min 2 min 0 W/m 19,3 km/h (3 Bft) 97,83 %
16.12.2018 04:02 -0,7 C -1,7 C -1,7 C 89 % 1009,5 hPa 0,0 l/m 0 min 2 min 0 W/m 22,5 km/h (4 Bft) 100,00 %
16.12.2018 04:04 -0,7 C -1,7 C -1,7 C 89 % 1009,5 hPa 0,0 l/m 0 min 2 min 0 W/m 22,5 km/h (4 Bft) 97,87 %
16.12.2018 04:06 -0,7 C -1,7 C -1,7 C 90 % 1009,4 hPa 0,0 l/m 0 min 2 min 0 W/m 22,5 km/h (4 Bft) 100,00 %
16.12.2018 04:08 -0,7 C -1,7 C -1,7 C 90 % 1009,4 hPa 0,0 l/m 0 min 2 min 0 W/m 22,5 km/h (4 Bft) 100,00 %
16.12.2018 04:10 -0,8 C -1,7 C -1,7 C 90 % 1009,4 hPa 0,0 l/m 0 min 2 min 0 W/m 25,7 km/h (4 Bft) 97,87 %
16.12.2018 04:12 -0,8 C -1,7 C -1,7 C 90 % 1009,3 hPa 0,0 l/m 0 min 2 min 0 W/m 29,0 km/h (5 Bft) 95,65 %
16.12.2018 04:14 -0,8 C -1,7 C -2,2 C 90 % 1009,3 hPa 0,0 l/m 0 min 2 min 0 W/m 25,7 km/h (4 Bft) 97,87 %
16.12.2018 04:16 -0,8 C -1,7 C -2,2 C 90 % 1009,3 hPa 0,0 l/m 0 min 0 min 0 W/m 29,0 km/h (5 Bft) 97,87 %
16.12.2018 04:18 -0,8 C -1,7 C -2,2 C 90 % 1009,2 hPa 0,0 l/m 0 min 0 min 0 W/m 25,7 km/h (4 Bft) 97,87 %
16.12.2018 04:20 -0,8 C -1,7 C -2,2 C 90 % 1009,2 hPa 0,0 l/m 0 min 0 min 0 W/m 29,0 km/h (5 Bft) 97,87 %
16.12.2018 04:22 -0,9 C -1,7 C -2,2 C 91 % 1009,2 hPa 0,0 l/m 0 min 2 min 0 W/m 25,7 km/h (4 Bft) 97,87 %
16.12.2018 04:24 -0,9 C -1,7 C -2,2 C 91 % 1009,2 hPa 0,0 l/m 0 min 2 min 0 W/m 25,7 km/h (4 Bft) 97,83 %
16.12.2018 04:26 -0,9 C -1,7 C -2,2 C 91 % 1009,2 hPa 0,0 l/m 0 min 2 min 0 W/m 25,7 km/h (4 Bft) 97,87 %
16.12.2018 04:28 -1,0 C -1,7 C -2,2 C 91 % 1009,1 hPa 0,0 l/m 0 min 2 min 0 W/m 25,7 km/h (4 Bft) 97,87 %
16.12.2018 04:30 -1,0 C -1,7 C -2,2 C 91 % 1009,1 hPa 0,0 l/m 0 min 0 min 0 W/m 22,5 km/h (4 Bft) 97,87 %
16.12.2018 04:32 -1,0 C -1,7 C -2,2 C 91 % 1009,1 hPa 0,0 l/m 0 min 2 min 0 W/m 25,7 km/h (4 Bft) 97,87 %
16.12.2018 04:34 -1,0 C -1,7 C -2,2 C 91 % 1009,2 hPa 0,0 l/m 0 min 0 min 0 W/m 19,3 km/h (3 Bft) 97,87 %
16.12.2018 04:36 -1,1 C -1,7 C -2,2 C 91 % 1009,1 hPa 0,0 l/m 0 min 0 min 0 W/m 25,7 km/h (4 Bft) 97,83 %
16.12.2018 04:38 -1,1 C -1,7 C -2,2 C 91 % 1009,1 hPa 0,0 l/m 0 min 0 min 0 W/m 22,5 km/h (4 Bft) 97,87 %
16.12.2018 04:40 -1,1 C -1,7 C -2,2 C 91 % 1009,1 hPa 0,0 l/m 0 min 0 min 0 W/m 25,7 km/h (4 Bft) 97,87 %
16.12.2018 04:42 -1,1 C -1,7 C -2,2 C 91 % 1009,0 hPa 0,0 l/m 0 min 0 min 0 W/m 25,7 km/h (4 Bft) 97,87 %
16.12.2018 04:44 -1,1 C -1,7 C -2,2 C 92 % 1009,0 hPa 0,0 l/m 0 min 0 min 0 W/m 22,5 km/h (4 Bft) 97,87 %
16.12.2018 04:46 -1,1 C -1,7 C -2,2 C 92 % 1009,0 hPa 0,0 l/m 0 min 0 min 0 W/m 38,6 km/h (5 Bft) 97,87 %
16.12.2018 04:48 -1,1 C -1,7 C -2,2 C 92 % 1009,0 hPa 0,0 l/m 0 min 0 min 0 W/m 22,5 km/h (4 Bft) 100,00 %
16.12.2018 04:50 -1,1 C -1,7 C -2,2 C 92 % 1009,0 hPa 0,0 l/m 0 min 0 min 0 W/m 29,0 km/h (5 Bft) 100,00 %
16.12.2018 04:52 -1,1 C -1,7 C -2,2 C 92 % 1009,0 hPa 0,0 l/m 0 min 0 min 0 W/m 22,5 km/h (4 Bft) 100,00 %
16.12.2018 04:54 -1,1 C -1,7 C -2,2 C 92 % 1008,9 hPa 0,0 l/m 0 min 2 min 0 W/m 29,0 km/h (5 Bft) 100,00 %
16.12.2018 04:56 -1,1 C -1,7 C -2,2 C 92 % 1008,9 hPa 0,0 l/m 0 min 0 min 0 W/m 25,7 km/h (4 Bft) 97,87 %
16.12.2018 04:58 -1,1 C -1,7 C -2,2 C 92 % 1008,9 hPa 0,0 l/m 0 min 0 min 0 W/m 19,3 km/h (3 Bft) 97,83 %
16.12.2018 05:00 -1,2 C -1,7 C -2,2 C 92 % 1008,9 hPa 0,0 l/m 0 min 0 min 0 W/m 22,5 km/h (4 Bft) 100,00 %
16.12.2018 05:02 -1,2 C -1,7 C -2,2 C 92 % 1009,0 hPa 0,0 l/m 0 min 0 min 0 W/m 25,7 km/h (4 Bft) 100,00 %
16.12.2018 05:04 -1,2 C -1,7 C -2,2 C 92 % 1008,9 hPa 0,0 l/m 0 min 0 min 0 W/m 25,7 km/h (4 Bft) 95,74 %
16.12.2018 05:06 -1,2 C -1,7 C -2,2 C 93 % 1008,9 hPa 0,0 l/m 0 min 0 min 0 W/m 22,5 km/h (4 Bft) 97,87 %
16.12.2018 05:08 -1,2 C -1,7 C -2,2 C 93 % 1009,0 hPa 0,0 l/m 0 min 0 min 0 W/m 22,5 km/h (4 Bft) 95,74 %
16.12.2018 05:10 -1,2 C -1,7 C -2,2 C 93 % 1009,0 hPa 0,0 l/m 0 min 0 min 0 W/m 25,7 km/h (4 Bft) 100,00 %
16.12.2018 05:12 -1,2 C -1,7 C -2,2 C 93 % 1009,0 hPa 0,0 l/m 0 min 0 min 0 W/m 25,7 km/h (4 Bft) 95,74 %
16.12.2018 05:14 -1,2 C -1,7 C -2,2 C 93 % 1009,0 hPa 0,0 l/m 0 min 0 min 0 W/m 29,0 km/h (5 Bft) 97,87 %
16.12.2018 05:19 -1,2 C -1,7 C -2,2 C 93 % 1009,1 hPa 0,0 l/m 0 min 0 min 0 W/m 32,2 km/h (5 Bft) 100,00 %
16.12.2018 05:20 -1,2 C -1,7 C -2,2 C 93 % 1009,1 hPa 0,0 l/m 0 min 0 min 0 W/m 12,9 km/h (3 Bft) 95,83 %
16.12.2018 05:22 -1,2 C -1,7 C -2,2 C 93 % 1008,9 hPa 0,0 l/m 0 min 0 min 0 W/m 9,7 km/h (2 Bft) 97,87 %
16.12.2018 05:24 -1,2 C -1,7 C -2,2 C 93 % 1008,8 hPa 0,0 l/m 0 min 0 min 0 W/m 16,1 km/h (3 Bft) 97,87 %
16.12.2018 05:26 -1,2 C -1,7 C -2,2 C 93 % 1008,8 hPa 0,0 l/m 0 min 0 min 0 W/m 22,5 km/h (4 Bft) 97,83 %
16.12.2018 05:28 -1,2 C -1,7 C -2,2 C 93 % 1008,7 hPa 0,0 l/m 0 min 0 min 0 W/m 22,5 km/h (4 Bft) 97,87 %
16.12.2018 05:30 -1,2 C -1,7 C -2,2 C 93 % 1008,7 hPa 0,0 l/m 0 min 0 min 0 W/m 16,1 km/h (3 Bft) 97,87 %
16.12.2018 05:32 -1,2 C -1,7 C -2,2 C 93 % 1008,8 hPa 0,0 l/m 0 min 0 min 0 W/m 35,4 km/h (5 Bft) 97,87 %
16.12.2018 05:34 -1,3 C -1,7 C -2,2 C 93 % 1008,7 hPa 0,0 l/m 0 min 0 min 0 W/m 19,3 km/h (3 Bft) 97,87 %
16.12.2018 05:36 -1,3 C -1,7 C -2,2 C 93 % 1008,8 hPa 0,0 l/m 0 min 0 min 0 W/m 22,5 km/h (4 Bft) 97,87 %
16.12.2018 05:38 -1,3 C -1,7 C -2,2 C 93 % 1008,8 hPa 0,0 l/m 0 min 0 min 0 W/m 19,3 km/h (3 Bft) 97,83 %
16.12.2018 05:40 -1,3 C -1,7 C -2,2 C 93 % 1008,8 hPa 0,0 l/m 0 min 0 min 0 W/m 32,2 km/h (5 Bft) 97,87 %
16.12.2018 05:42 -1,3 C -1,7 C -2,2 C 93 % 1008,8 hPa 0,0 l/m 0 min 0 min 0 W/m 22,5 km/h (4 Bft) 93,62 %
16.12.2018 05:44 -1,3 C -1,7 C -2,2 C 93 % 1008,7 hPa 0,0 l/m 0 min 0 min 0 W/m 22,5 km/h (4 Bft) 95,74 %
16.12.2018 05:46 -1,3 C -1,7 C -2,2 C 94 % 1008,7 hPa 0,0 l/m 0 min 0 min 0 W/m 25,7 km/h (4 Bft) 97,87 %
16.12.2018 05:48 -1,3 C -1,7 C -2,2 C 94 % 1008,8 hPa 0,0 l/m 0 min 0 min 0 W/m 25,7 km/h (4 Bft) 97,83 %
16.12.2018 05:50 -1,3 C -1,7 C -2,2 C 94 % 1008,8 hPa 0,0 l/m 0 min 0 min 0 W/m 22,5 km/h (4 Bft) 95,74 %
16.12.2018 05:52 -1,3 C -1,7 C -2,2 C 94 % 1008,9 hPa 0,0 l/m 0 min 0 min 0 W/m 29,0 km/h (5 Bft) 95,74 %
16.12.2018 05:54 -1,3 C -1,7 C -2,2 C 94 % 1008,8 hPa 0,0 l/m 0 min 0 min 0 W/m 41,8 km/h (6 Bft) 97,87 %
16.12.2018 05:56 -1,4 C -1,7 C -2,2 C 94 % 1008,8 hPa 0,0 l/m 0 min 0 min 0 W/m 25,7 km/h (4 Bft) 97,87 %
16.12.2018 05:58 -1,4 C -1,7 C -2,2 C 94 % 1008,8 hPa 0,0 l/m 0 min 0 min 0 W/m 35,4 km/h (5 Bft) 95,74 %
16.12.2018 06:00 -1,4 C -1,7 C -2,2 C 94 % 1008,7 hPa 0,0 l/m 0 min 0 min 0 W/m 19,3 km/h (3 Bft) 95,65 %
16.12.2018 06:02 -1,4 C -1,7 C -2,2 C 94 % 1008,7 hPa 0,0 l/m 0 min 0 min 0 W/m 22,5 km/h (4 Bft) 97,87 %
16.12.2018 06:04 -1,4 C -1,7 C -2,2 C 94 % 1008,7 hPa 0,0 l/m 0 min 0 min 0 W/m 25,7 km/h (4 Bft) 97,87 %
16.12.2018 06:08 -1,4 C -1,7 C -2,2 C 94 % 1008,7 hPa 0,0 l/m 0 min 0 min 0 W/m 29,0 km/h (5 Bft) 97,87 %
16.12.2018 06:10 -1,4 C -1,7 C -2,2 C 94 % 1008,7 hPa 0,0 l/m 0 min 0 min 0 W/m 19,3 km/h (3 Bft) 97,87 %
16.12.2018 06:12 -1,4 C -1,7 C -2,2 C 94 % 1008,7 hPa 0,0 l/m 0 min 0 min 0 W/m 22,5 km/h (4 Bft) 97,83 %
16.12.2018 06:14 -1,4 C -1,7 C -2,2 C 94 % 1008,7 hPa 0,0 l/m 0 min 0 min 0 W/m 22,5 km/h (4 Bft) 97,87 %
16.12.2018 06:16 -1,4 C -1,7 C -2,2 C 94 % 1008,6 hPa 0,0 l/m 0 min 0 min 0 W/m 16,1 km/h (3 Bft) 93,62 %
16.12.2018 06:18 -1,4 C -1,7 C -2,2 C 94 % 1008,7 hPa 0,0 l/m 0 min 0 min 0 W/m 25,7 km/h (4 Bft) 97,87 %
16.12.2018 06:20 -1,4 C -1,7 C -2,2 C 94 % 1008,8 hPa 0,0 l/m 0 min 0 min 0 W/m 12,9 km/h (3 Bft) 97,87 %
16.12.2018 06:22 -1,4 C -1,7 C -2,2 C 94 % 1008,8 hPa 0,0 l/m 0 min 0 min 0 W/m 19,3 km/h (3 Bft) 97,87 %
16.12.2018 06:24 -1,4 C -1,7 C -2,2 C 94 % 1008,6 hPa 0,0 l/m 0 min 0 min 0 W/m 29,0 km/h (5 Bft) 97,83 %
16.12.2018 06:26 -1,4 C -1,7 C -2,2 C 94 % 1008,7 hPa 0,0 l/m 0 min 0 min 0 W/m 25,7 km/h (4 Bft) 95,74 %
16.12.2018 06:28 -1,4 C -1,7 C -2,2 C 94 % 1008,6 hPa 0,0 l/m 0 min 0 min 0 W/m 35,4 km/h (5 Bft) 97,87 %
16.12.2018 06:30 -1,4 C -1,7 C -2,2 C 94 % 1008,6 hPa 0,0 l/m 0 min 0 min 0 W/m 25,7 km/h (4 Bft) 97,87 %
16.12.2018 06:32 -1,4 C -1,7 C -2,2 C 94 % 1008,6 hPa 0,0 l/m 0 min 0 min 0 W/m 29,0 km/h (5 Bft) 95,74 %
16.12.2018 06:34 -1,4 C -1,7 C -2,2 C 94 % 1008,5 hPa 0,0 l/m 0 min 0 min 0 W/m 25,7 km/h (4 Bft) 97,87 %
16.12.2018 06:36 -1,3 C -1,7 C -2,2 C 94 % 1008,5 hPa 0,0 l/m 0 min 0 min 0 W/m 22,5 km/h (4 Bft) 97,83 %
16.12.2018 06:38 -1,4 C -1,7 C -2,2 C 94 % 1008,5 hPa 0,0 l/m 0 min 0 min 0 W/m 29,0 km/h (5 Bft) 97,87 %
16.12.2018 06:40 -1,3 C -1,7 C -2,2 C 94 % 1008,5 hPa 0,0 l/m 0 min 0 min 0 W/m 32,2 km/h (5 Bft) 100,00 %
16.12.2018 06:42 -1,3 C -1,7 C -2,2 C 94 % 1008,5 hPa 0,0 l/m 0 min 0 min 0 W/m 25,7 km/h (4 Bft) 100,00 %
16.12.2018 06:44 -1,4 C -1,7 C -2,2 C 94 % 1008,5 hPa 0,0 l/m 0 min 0 min 0 W/m 19,3 km/h (3 Bft) 100,00 %
16.12.2018 06:46 -1,3 C -1,7 C -2,2 C 94 % 1008,5 hPa 0,0 l/m 0 min 0 min 0 W/m 25,7 km/h (4 Bft) 100,00 %
16.12.2018 06:48 -1,3 C -1,7 C -2,2 C 95 % 1008,5 hPa 0,0 l/m 0 min 0 min 0 W/m 29,0 km/h (5 Bft) 97,83 %
16.12.2018 06:50 -1,3 C -1,7 C -2,2 C 95 % 1008,6 hPa 0,0 l/m 0 min 0 min 0 W/m 22,5 km/h (4 Bft) 100,00 %
16.12.2018 06:52 -1,3 C -1,7 C -2,2 C 95 % 1008,6 hPa 0,0 l/m 0 min 0 min 0 W/m 25,7 km/h (4 Bft) 97,87 %
16.12.2018 06:54 -1,3 C -1,7 C -2,2 C 95 % 1008,6 hPa 0,0 l/m 0 min 0 min 0 W/m 32,2 km/h (5 Bft) 97,87 %
16.12.2018 06:56 -1,3 C -1,7 C -2,2 C 94 % 1008,5 hPa 0,0 l/m 0 min 0 min 0 W/m 29,0 km/h (5 Bft) 97,87 %
16.12.2018 06:58 -1,3 C -1,7 C -2,2 C 94 % 1008,5 hPa 0,0 l/m 0 min 0 min 0 W/m 22,5 km/h (4 Bft) 100,00 %
16.12.2018 07:00 -1,3 C -1,7 C -2,2 C 94 % 1008,6 hPa 0,0 l/m 0 min 0 min 0 W/m 19,3 km/h (3 Bft) 100,00 %
16.12.2018 07:02 -1,3 C -1,7 C -2,2 C 94 % 1008,5 hPa 0,0 l/m 0 min 0 min 0 W/m 22,5 km/h (4 Bft) 100,00 %
16.12.2018 07:04 -1,3 C -1,7 C -2,2 C 94 % 1008,5 hPa 0,0 l/m 0 min 0 min 0 W/m 29,0 km/h (5 Bft) 100,00 %
16.12.2018 07:06 -1,3 C -1,7 C -2,2 C 94 % 1008,5 hPa 0,0 l/m 0 min 0 min 0 W/m 25,7 km/h (4 Bft) 100,00 %
16.12.2018 07:08 -1,3 C -1,7 C -2,2 C 95 % 1008,4 hPa 0,0 l/m 0 min 0 min 0 W/m 19,3 km/h (3 Bft) 100,00 %
16.12.2018 07:10 -1,3 C -1,7 C -2,2 C 95 % 1008,4 hPa 0,0 l/m 0 min 0 min 0 W/m 25,7 km/h (4 Bft) 97,87 %
16.12.2018 07:12 -1,3 C -1,7 C -2,2 C 95 % 1008,3 hPa 0,0 l/m 0 min 0 min 0 W/m 29,0 km/h (5 Bft) 100,00 %
16.12.2018 07:14 -1,3 C -1,7 C -2,2 C 95 % 1008,3 hPa 0,0 l/m 0 min 0 min 0 W/m 22,5 km/h (4 Bft) 100,00 %
16.12.2018 07:16 -1,2 C -1,7 C -2,2 C 95 % 1008,3 hPa 0,0 l/m 0 min 0 min 0 W/m 29,0 km/h (5 Bft) 97,87 %
16.12.2018 07:18 -1,2 C -1,7 C -2,2 C 95 % 1008,3 hPa 0,0 l/m 0 min 0 min 0 W/m 19,3 km/h (3 Bft) 97,87 %
16.12.2018 07:20 -1,2 C -1,7 C -2,2 C 95 % 1008,3 hPa 0,0 l/m 0 min 0 min 0 W/m 19,3 km/h (3 Bft) 97,83 %
16.12.2018 07:22 -1,2 C -1,7 C -2,2 C 95 % 1008,3 hPa 0,0 l/m 0 min 0 min 0 W/m 22,5 km/h (4 Bft) 97,87 %
16.12.2018 07:24 -1,2 C -1,7 C -2,2 C 95 % 1008,3 hPa 0,0 l/m 0 min 0 min 0 W/m 22,5 km/h (4 Bft) 97,87 %
16.12.2018 07:26 -1,2 C -1,7 C -2,2 C 95 % 1008,3 hPa 0,0 l/m 0 min 0 min 0 W/m 19,3 km/h (3 Bft) 95,74 %
16.12.2018 07:28 -1,2 C -1,7 C -2,2 C 94 % 1008,3 hPa 0,0 l/m 0 min 0 min 0 W/m 22,5 km/h (4 Bft) 95,74 %
16.12.2018 07:30 -1,2 C -1,7 C -2,2 C 94 % 1008,3 hPa 0,0 l/m 0 min 0 min 0 W/m 16,1 km/h (3 Bft) 97,83 %
16.12.2018 07:32 -1,2 C -1,7 C -1,7 C 94 % 1008,3 hPa 0,0 l/m 0 min 0 min 0 W/m 16,1 km/h (3 Bft) 97,87 %
16.12.2018 07:34 -1,2 C -1,7 C -1,7 C 94 % 1008,3 hPa 0,0 l/m 0 min 0 min 0 W/m 9,7 km/h (2 Bft) 100,00 %
16.12.2018 07:36 -1,2 C -1,7 C -1,7 C 94 % 1008,3 hPa 0,0 l/m 0 min 0 min 0 W/m 16,1 km/h (3 Bft) 100,00 %
16.12.2018 07:38 -1,2 C -1,7 C -1,7 C 94 % 1008,3 hPa 0,0 l/m 0 min 0 min 0 W/m 12,9 km/h (3 Bft) 97,87 %
16.12.2018 07:40 -1,2 C -1,7 C -1,7 C 94 % 1008,3 hPa 0,0 l/m 0 min 0 min 0 W/m 16,1 km/h (3 Bft) 95,74 %
16.12.2018 07:42 -1,2 C -1,7 C -1,7 C 94 % 1008,3 hPa 0,0 l/m 0 min 0 min 0 W/m 19,3 km/h (3 Bft) 95,65 %
16.12.2018 07:44 -1,2 C -1,7 C -1,7 C 94 % 1008,3 hPa 0,0 l/m 0 min 0 min 0 W/m 19,3 km/h (3 Bft) 93,62 %
16.12.2018 07:46 -1,1 C -1,1 C -1,7 C 94 % 1008,3 hPa 0,0 l/m 0 min 0 min 0 W/m 22,5 km/h (4 Bft) 95,74 %
16.12.2018 07:48 -1,1 C -1,1 C -1,7 C 94 % 1008,3 hPa 0,0 l/m 0 min 0 min 0 W/m 12,9 km/h (3 Bft) 95,74 %
16.12.2018 07:50 -1,1 C -1,1 C -1,7 C 94 % 1008,3 hPa 0,0 l/m 0 min 0 min 0 W/m 6,4 km/h (2 Bft) 95,74 %
16.12.2018 07:52 -1,1 C -1,1 C -1,7 C 94 % 1008,3 hPa 0,0 l/m 0 min 0 min 0 W/m 22,5 km/h (4 Bft) 91,49 %
16.12.2018 07:54 -1,1 C -1,1 C -1,7 C 94 % 1008,3 hPa 0,0 l/m 0 min 0 min 0 W/m 12,9 km/h (3 Bft) 95,65 %
16.12.2018 07:56 -1,1 C -1,1 C -1,7 C 94 % 1008,3 hPa 0,0 l/m 0 min 0 min 0 W/m 16,1 km/h (3 Bft) 95,74 %
16.12.2018 07:58 -1,1 C -1,1 C -1,7 C 94 % 1008,2 hPa 0,0 l/m 0 min 0 min 0 W/m 16,1 km/h (3 Bft) 93,62 %
16.12.2018 08:00 -1,1 C -1,1 C -1,7 C 94 % 1008,3 hPa 0,0 l/m 0 min 0 min 0 W/m 9,7 km/h (2 Bft) 95,74 %
16.12.2018 08:02 -1,1 C -1,1 C -1,7 C 94 % 1008,3 hPa 0,0 l/m 0 min 0 min 0 W/m 25,7 km/h (4 Bft) 95,74 %
16.12.2018 08:04 -1,1 C -1,1 C -1,7 C 94 % 1008,4 hPa 0,0 l/m 0 min 0 min 0 W/m 12,9 km/h (3 Bft) 95,65 %
16.12.2018 08:06 -1,1 C -1,1 C -1,7 C 94 % 1008,4 hPa 0,0 l/m 0 min 0 min 0 W/m 19,3 km/h (3 Bft) 95,74 %
16.12.2018 08:08 -1,1 C -1,1 C -1,7 C 94 % 1008,4 hPa 0,0 l/m 0 min 0 min 0 W/m 19,3 km/h (3 Bft) 95,74 %
16.12.2018 08:10 -1,1 C -1,7 C -1,7 C 94 % 1008,4 hPa 0,0 l/m 0 min 0 min 0 W/m 22,5 km/h (4 Bft) 93,62 %
16.12.2018 08:12 -1,1 C -1,7 C -1,7 C 94 % 1008,5 hPa 0,0 l/m 0 min 0 min 0 W/m 16,1 km/h (3 Bft) 95,74 %
16.12.2018 08:14 -1,1 C -1,7 C -1,7 C 94 % 1008,5 hPa 0,0 l/m 0 min 0 min 0 W/m 22,5 km/h (4 Bft) 95,74 %
16.12.2018 08:16 -1,1 C -1,7 C -1,7 C 94 % 1008,5 hPa 0,0 l/m 0 min 0 min 0 W/m 22,5 km/h (4 Bft) 95,65 %
16.12.2018 08:18 -1,1 C -1,7 C -1,7 C 94 % 1008,5 hPa 0,0 l/m 0 min 0 min 0 W/m 25,7 km/h (4 Bft) 97,87 %
16.12.2018 08:20 -1,1 C -1,7 C -1,7 C 94 % 1008,5 hPa 0,0 l/m 0 min 0 min 0 W/m 19,3 km/h (3 Bft) 97,87 %
16.12.2018 08:22 -1,1 C -1,7 C -1,7 C 94 % 1008,5 hPa 0,0 l/m 0 min 0 min 0 W/m 16,1 km/h (3 Bft) 97,87 %
16.12.2018 08:24 -1,0 C -1,7 C -1,7 C 94 % 1008,5 hPa 0,0 l/m 0 min 0 min 0 W/m 12,9 km/h (3 Bft) 95,74 %
16.12.2018 08:26 -1,0 C -1,7 C -1,7 C 94 % 1008,5 hPa 0,0 l/m 0 min 0 min 0 W/m 16,1 km/h (3 Bft) 95,74 %
16.12.2018 08:28 -1,0 C -1,7 C -1,7 C 94 % 1008,5 hPa 0,0 l/m 0 min 0 min 0 W/m 29,0 km/h (5 Bft) 97,83 %
16.12.2018 08:30 -1,0 C -1,7 C -2,2 C 94 % 1008,6 hPa 0,0 l/m 0 min 0 min 0 W/m 16,1 km/h (3 Bft) 97,87 %
16.12.2018 08:32 -1,0 C -1,7 C -2,2 C 94 % 1008,5 hPa 0,0 l/m 0 min 0 min 0 W/m 12,9 km/h (3 Bft) 97,87 %
16.12.2018 08:34 -1,0 C -1,7 C -1,7 C 94 % 1008,6 hPa 0,0 l/m 0 min 0 min 0 W/m 25,7 km/h (4 Bft) 100,00 %
16.12.2018 08:36 -1,0 C -1,7 C -1,7 C 94 % 1008,7 hPa 0,0 l/m 0 min 0 min 0 W/m 16,1 km/h (3 Bft) 97,87 %
16.12.2018 08:38 -1,0 C -1,7 C -1,7 C 94 % 1008,7 hPa 0,0 l/m 0 min 0 min 0 W/m 16,1 km/h (3 Bft) 95,83 %
16.12.2018 08:40 -1,0 C -1,7 C -1,7 C 94 % 1008,7 hPa 0,0 l/m 0 min 0 min 0 W/m 16,1 km/h (3 Bft) 95,65 %
16.12.2018 08:42 -1,0 C -1,7 C -1,7 C 94 % 1008,7 hPa 0,0 l/m 0 min 0 min 0 W/m 16,1 km/h (3 Bft) 95,74 %
16.12.2018 08:44 -1,0 C -1,1 C -1,7 C 94 % 1008,7 hPa 0,0 l/m 0 min 0 min 0 W/m 19,3 km/h (3 Bft) 93,62 %
16.12.2018 08:46 -1,0 C -1,1 C -1,7 C 94 % 1008,7 hPa 0,0 l/m 0 min 0 min 0 W/m 16,1 km/h (3 Bft) 89,36 %
16.12.2018 08:48 -1,0 C -1,1 C -1,7 C 94 % 1008,7 hPa 0,0 l/m 0 min 0 min 0 W/m 16,1 km/h (3 Bft) 95,74 %
16.12.2018 08:50 -1,0 C -1,1 C -1,7 C 94 % 1008,7 hPa 0,0 l/m 0 min 0 min 0 W/m 22,5 km/h (4 Bft) 91,49 %
16.12.2018 08:52 -0,9 C -1,1 C -1,7 C 93 % 1008,8 hPa 0,0 l/m 0 min 0 min 0 W/m 16,1 km/h (3 Bft) 95,65 %
16.12.2018 08:54 -0,9 C -1,1 C -1,7 C 93 % 1008,8 hPa 0,0 l/m 0 min 0 min 0 W/m 16,1 km/h (3 Bft) 97,87 %
16.12.2018 08:56 -0,9 C -1,1 C -1,7 C 93 % 1008,7 hPa 0,0 l/m 0 min 0 min 0 W/m 16,1 km/h (3 Bft) 97,87 %
16.12.2018 08:58 -0,9 C -1,1 C -1,7 C 93 % 1008,6 hPa 0,0 l/m 0 min 0 min 0 W/m 16,1 km/h (3 Bft) 93,62 %
16.12.2018 09:00 -0,9 C -1,1 C -1,7 C 94 % 1008,7 hPa 0,0 l/m 0 min 0 min 3 W/m 19,3 km/h (3 Bft) 97,87 %
16.12.2018 09:02 -0,9 C -1,1 C -1,7 C 94 % 1008,7 hPa 0,0 l/m 0 min 0 min 5 W/m 25,7 km/h (4 Bft) 97,87 %
16.12.2018 09:04 -0,9 C -1,1 C -1,7 C 93 % 1008,7 hPa 0,0 l/m 0 min 0 min 5 W/m 22,5 km/h (4 Bft) 97,83 %
16.12.2018 09:06 -0,9 C -1,1 C -1,7 C 93 % 1008,8 hPa 0,0 l/m 0 min 0 min 5 W/m 22,5 km/h (4 Bft) 97,87 %
16.12.2018 09:08 -0,9 C -1,1 C -1,7 C 93 % 1008,8 hPa 0,0 l/m 0 min 0 min 5 W/m 22,5 km/h (4 Bft) 93,62 %
16.12.2018 09:10 -0,9 C -1,1 C -1,7 C 93 % 1008,8 hPa 0,0 l/m 0 min 0 min 7 W/m 22,5 km/h (4 Bft) 97,87 %
16.12.2018 09:12 -0,9 C -1,1 C -1,7 C 93 % 1008,9 hPa 0,0 l/m 0 min 0 min 7 W/m 16,1 km/h (3 Bft) 97,87 %
16.12.2018 09:14 -0,8 C -1,1 C -1,7 C 93 % 1008,9 hPa 0,0 l/m 0 min 0 min 7 W/m 16,1 km/h (3 Bft) 97,87 %
16.12.2018 09:16 -0,8 C -1,1 C -1,7 C 93 % 1008,9 hPa 0,0 l/m 0 min 0 min 7 W/m 16,1 km/h (3 Bft) 97,83 %
16.12.2018 09:18 -0,8 C -1,1 C -1,7 C 93 % 1008,9 hPa 0,0 l/m 0 min 0 min 7 W/m 9,7 km/h (2 Bft) 95,74 %
16.12.2018 09:20 -0,8 C -1,1 C -1,7 C 93 % 1008,9 hPa 0,0 l/m 0 min 0 min 7 W/m 16,1 km/h (3 Bft) 97,87 %
16.12.2018 09:22 -0,8 C -1,1 C -1,7 C 93 % 1008,9 hPa 0,0 l/m 0 min 0 min 8 W/m 9,7 km/h (2 Bft) 97,87 %
16.12.2018 09:24 -0,8 C -1,1 C -1,7 C 93 % 1008,9 hPa 0,0 l/m 0 min 0 min 9 W/m 19,3 km/h (3 Bft) 95,74 %
16.12.2018 09:26 -0,8 C -1,1 C -1,7 C 93 % 1008,9 hPa 0,0 l/m 0 min 0 min 9 W/m 22,5 km/h (4 Bft) 97,83 %
16.12.2018 09:28 -0,8 C -1,1 C -1,7 C 93 % 1008,9 hPa 0,0 l/m 0 min 0 min 9 W/m 12,9 km/h (3 Bft) 93,62 %
16.12.2018 09:30 -0,8 C -1,1 C -1,7 C 93 % 1008,9 hPa 0,0 l/m 0 min 0 min 11 W/m 16,1 km/h (3 Bft) 95,74 %
16.12.2018 09:32 -0,7 C -1,1 C -1,7 C 93 % 1009,0 hPa 0,0 l/m 0 min 0 min 11 W/m 16,1 km/h (3 Bft) 95,74 %
16.12.2018 09:34 -0,7 C -1,1 C -1,7 C 93 % 1008,9 hPa 0,0 l/m 0 min 0 min 12 W/m 9,7 km/h (2 Bft) 100,00 %
16.12.2018 09:36 -0,7 C -1,1 C -1,7 C 93 % 1008,9 hPa 0,0 l/m 0 min 0 min 12 W/m 16,1 km/h (3 Bft) 100,00 %
16.12.2018 09:38 -0,7 C -1,1 C -1,7 C 93 % 1009,0 hPa 0,0 l/m 0 min 0 min 12 W/m 16,1 km/h (3 Bft) 97,14 %
16.12.2018 09:40 -0,7 C -1,1 C -1,7 C 93 % 1009,0 hPa 0,0 l/m 0 min 0 min 12 W/m 12,9 km/h (3 Bft) 100,00 %
16.12.2018 09:42 -0,7 C -1,1 C -1,7 C 93 % 1009,0 hPa 0,0 l/m 0 min 0 min 12 W/m 12,9 km/h (3 Bft) 100,00 %
16.12.2018 09:44 -0,7 C -1,1 C -1,7 C 93 % 1009,0 hPa 0,0 l/m 0 min 0 min 12 W/m 9,7 km/h (2 Bft) 100,00 %
16.12.2018 09:47 -0,7 C -1,1 C -1,7 C 93 % 1009,0 hPa 0,0 l/m 0 min 0 min 14 W/m 12,9 km/h (3 Bft) 98,72 %
16.12.2018 09:48 -0,7 C -1,1 C -1,7 C 93 % 1009,0 hPa 0,0 l/m 0 min 0 min 14 W/m 19,3 km/h (3 Bft) 95,83 %
16.12.2018 09:50 -0,7 C -1,1 C -1,7 C 93 % 1009,0 hPa 0,0 l/m 0 min 0 min 16 W/m 16,1 km/h (3 Bft) 95,74 %
16.12.2018 09:52 -0,6 C -1,1 C -1,7 C 93 % 1009,0 hPa 0,0 l/m 0 min 0 min 16 W/m 16,1 km/h (3 Bft) 100,00 %
16.12.2018 09:54 -0,6 C -1,1 C -1,7 C 93 % 1008,9 hPa 0,0 l/m 0 min 0 min 15 W/m 22,5 km/h (4 Bft) 97,83 %
16.12.2018 09:56 -0,6 C -1,1 C -1,1 C 93 % 1009,0 hPa 0,0 l/m 0 min 0 min 15 W/m 22,5 km/h (4 Bft) 97,87 %
16.12.2018 09:58 -0,6 C -1,1 C -1,1 C 93 % 1009,0 hPa 0,0 l/m 0 min 0 min 15 W/m 3,2 km/h (1 Bft) 97,87 %
16.12.2018 10:00 -0,6 C -1,1 C -1,1 C 93 % 1009,1 hPa 0,0 l/m 0 min 0 min 14 W/m 12,9 km/h (3 Bft) 95,74 %
16.12.2018 10:02 -0,6 C -1,1 C -1,1 C 93 % 1009,3 hPa 0,0 l/m 0 min 0 min 14 W/m 6,4 km/h (2 Bft) 100,00 %
16.12.2018 10:04 -0,6 C -0,6 C -1,1 C 93 % 1009,3 hPa 0,0 l/m 0 min 0 min 14 W/m 0,0 km/h (0 Bft) 97,87 %
16.12.2018 10:06 -0,6 C -0,6 C -1,1 C 93 % 1009,3 hPa 0,0 l/m 0 min 0 min 17 W/m 6,4 km/h (2 Bft) 97,83 %
16.12.2018 10:08 -0,6 C -0,6 C -1,1 C 93 % 1009,4 hPa 0,0 l/m 0 min 0 min 21 W/m 3,2 km/h (1 Bft) 97,87 %
16.12.2018 10:10 -0,6 C -0,6 C -1,1 C 93 % 1009,3 hPa 0,0 l/m 0 min 0 min 29 W/m 9,7 km/h (2 Bft) 97,87 %
16.12.2018 10:12 -0,6 C -0,6 C -1,1 C 93 % 1009,3 hPa 0,0 l/m 0 min 0 min 36 W/m 6,4 km/h (2 Bft) 95,74 %
16.12.2018 10:14 -0,6 C -0,6 C -1,1 C 93 % 1009,1 hPa 0,0 l/m 0 min 0 min 41 W/m 16,1 km/h (3 Bft) 93,62 %
16.12.2018 10:16 -0,5 C -0,6 C -1,1 C 93 % 1009,0 hPa 0,0 l/m 0 min 0 min 47 W/m 16,1 km/h (3 Bft) 95,65 %
16.12.2018 10:18 -0,5 C -0,6 C -1,1 C 93 % 1008,9 hPa 0,0 l/m 0 min 0 min 55 W/m 29,0 km/h (5 Bft) 95,74 %
16.12.2018 10:20 -0,5 C -0,6 C -1,1 C 93 % 1009,0 hPa 0,0 l/m 0 min 0 min 59 W/m 22,5 km/h (4 Bft) 97,87 %
16.12.2018 10:22 -0,5 C -0,6 C -1,1 C 93 % 1009,2 hPa 0,0 l/m 0 min 0 min 55 W/m 22,5 km/h (4 Bft) 97,87 %
16.12.2018 10:24 -0,5 C -0,6 C -1,1 C 93 % 1009,2 hPa 0,0 l/m 0 min 0 min 52 W/m 22,5 km/h (4 Bft) 97,87 %
16.12.2018 10:26 -0,4 C -0,6 C -1,1 C 93 % 1009,2 hPa 0,0 l/m 0 min 0 min 49 W/m 16,1 km/h (3 Bft) 97,87 %
16.12.2018 10:28 -0,4 C -0,6 C -1,1 C 93 % 1009,1 hPa 0,0 l/m 0 min 0 min 46 W/m 16,1 km/h (3 Bft) 97,83 %
16.12.2018 10:30 -0,4 C -0,6 C -1,1 C 93 % 1009,2 hPa 0,0 l/m 0 min 0 min 41 W/m 9,7 km/h (2 Bft) 97,87 %
16.12.2018 10:32 -0,4 C -0,6 C -1,1 C 93 % 1009,1 hPa 0,0 l/m 0 min 0 min 41 W/m 9,7 km/h (2 Bft) 97,87 %
16.12.2018 10:34 -0,4 C -0,6 C -1,1 C 93 % 1009,0 hPa 0,0 l/m 0 min 0 min 42 W/m 16,1 km/h (3 Bft) 97,87 %
16.12.2018 10:36 -0,4 C -0,6 C -1,1 C 93 % 1009,3 hPa 0,0 l/m 0 min 0 min 36 W/m 12,9 km/h (3 Bft) 95,74 %
16.12.2018 10:38 -0,4 C -0,6 C -1,1 C 93 % 1009,3 hPa 0,0 l/m 0 min 0 min 32 W/m 3,2 km/h (1 Bft) 95,74 %
16.12.2018 10:40 -0,4 C -0,6 C -1,1 C 93 % 1009,4 hPa 0,0 l/m 0 min 0 min 31 W/m 9,7 km/h (2 Bft) 97,83 %
16.12.2018 10:42 -0,4 C -0,6 C -1,1 C 93 % 1009,3 hPa 0,0 l/m 0 min 0 min 32 W/m 6,4 km/h (2 Bft) 95,74 %
16.12.2018 10:44 -0,4 C -0,6 C -1,1 C 93 % 1009,3 hPa 0,0 l/m 0 min 0 min 36 W/m 12,9 km/h (3 Bft) 95,74 %
16.12.2018 10:46 -0,3 C -0,6 C -1,1 C 93 % 1009,3 hPa 0,0 l/m 0 min 0 min 40 W/m 3,2 km/h (1 Bft) 95,74 %
16.12.2018 10:48 -0,3 C -0,6 C -1,1 C 93 % 1009,4 hPa 0,0 l/m 0 min 0 min 42 W/m 9,7 km/h (2 Bft) 97,87 %
16.12.2018 10:50 -0,3 C -0,6 C -1,1 C 92 % 1009,3 hPa 0,0 l/m 0 min 0 min 52 W/m 19,3 km/h (3 Bft) 100,00 %
16.12.2018 10:52 -0,3 C -0,6 C -1,1 C 92 % 1009,2 hPa 0,0 l/m 0 min 0 min 53 W/m 25,7 km/h (4 Bft) 100,00 %
16.12.2018 10:54 -0,3 C -0,6 C -1,1 C 92 % 1009,1 hPa 0,0 l/m 0 min 0 min 49 W/m 32,2 km/h (5 Bft) 100,00 %
16.12.2018 10:56 -0,3 C -0,6 C -1,1 C 92 % 1009,0 hPa 0,0 l/m 0 min 0 min 43 W/m 25,7 km/h (4 Bft) 100,00 %
16.12.2018 10:58 -0,3 C -0,6 C -1,1 C 92 % 1008,9 hPa 0,0 l/m 0 min 0 min 36 W/m 22,5 km/h (4 Bft) 97,87 %
16.12.2018 11:00 -0,3 C -0,6 C -1,1 C 92 % 1009,0 hPa 0,0 l/m 0 min 0 min 33 W/m 22,5 km/h (4 Bft) 100,00 %
16.12.2018 11:02 -0,3 C -0,6 C -1,1 C 92 % 1009,1 hPa 0,0 l/m 0 min 0 min 31 W/m 16,1 km/h (3 Bft) 97,87 %
16.12.2018 11:04 -0,3 C -0,6 C -1,1 C 92 % 1009,2 hPa 0,0 l/m 0 min 0 min 28 W/m 16,1 km/h (3 Bft) 97,83 %
16.12.2018 11:06 -0,3 C -0,6 C -1,1 C 92 % 1009,2 hPa 0,0 l/m 0 min 0 min 30 W/m 16,1 km/h (3 Bft) 100,00 %
16.12.2018 11:08 -0,2 C -0,6 C -1,1 C 92 % 1009,2 hPa 0,0 l/m 0 min 0 min 30 W/m 12,9 km/h (3 Bft) 93,62 %
16.12.2018 11:10 -0,2 C -0,6 C -1,1 C 92 % 1009,2 hPa 0,0 l/m 0 min 0 min 33 W/m 12,9 km/h (3 Bft) 100,00 %
16.12.2018 11:12 -0,2 C -0,6 C -1,1 C 92 % 1009,2 hPa 0,0 l/m 0 min 0 min 31 W/m 22,5 km/h (4 Bft) 97,87 %
16.12.2018 11:14 -0,2 C -0,6 C -1,1 C 92 % 1009,2 hPa 0,0 l/m 0 min 0 min 26 W/m 16,1 km/h (3 Bft) 100,00 %
16.12.2018 11:16 -0,2 C -0,6 C -1,1 C 92 % 1009,1 hPa 0,0 l/m 0 min 0 min 27 W/m 29,0 km/h (5 Bft) 97,87 %
16.12.2018 11:18 -0,2 C -0,6 C -1,1 C 92 % 1009,2 hPa 0,0 l/m 0 min 0 min 31 W/m 22,5 km/h (4 Bft) 97,87 %
16.12.2018 11:20 -0,2 C -0,6 C -1,1 C 92 % 1009,3 hPa 0,0 l/m 0 min 0 min 34 W/m 16,1 km/h (3 Bft) 100,00 %
16.12.2018 11:22 -0,2 C 0,0 C -0,6 C 92 % 1009,4 hPa 0,0 l/m 0 min 0 min 38 W/m 12,9 km/h (3 Bft) 100,00 %
16.12.2018 11:24 -0,2 C 0,0 C -0,6 C 92 % 1009,3 hPa 0,0 l/m 0 min 0 min 38 W/m 12,9 km/h (3 Bft) 100,00 %
16.12.2018 11:26 -0,2 C 0,0 C -0,6 C 92 % 1009,2 hPa 0,0 l/m 0 min 0 min 36 W/m 12,9 km/h (3 Bft) 100,00 %
16.12.2018 11:28 -0,2 C 0,0 C -0,6 C 92 % 1009,4 hPa 0,0 l/m 0 min 0 min 35 W/m 16,1 km/h (3 Bft) 95,74 %
16.12.2018 11:30 -0,2 C 0,0 C -0,6 C 92 % 1009,3 hPa 0,0 l/m 0 min 0 min 35 W/m 3,2 km/h (1 Bft) 97,87 %
16.12.2018 11:32 -0,2 C 0,0 C -0,6 C 92 % 1009,3 hPa 0,0 l/m 0 min 0 min 37 W/m 22,5 km/h (4 Bft) 95,74 %
16.12.2018 11:34 -0,2 C 0,0 C -0,6 C 92 % 1009,3 hPa 0,0 l/m 0 min 0 min 39 W/m 19,3 km/h (3 Bft) 95,74 %
16.12.2018 11:36 -0,1 C 0,0 C -0,6 C 92 % 1009,3 hPa 0,0 l/m 0 min 0 min 36 W/m 12,9 km/h (3 Bft) 97,87 %
16.12.2018 11:38 -0,1 C 0,0 C -0,6 C 92 % 1009,3 hPa 0,0 l/m 0 min 0 min 32 W/m 16,1 km/h (3 Bft) 95,65 %
16.12.2018 11:40 -0,1 C 0,0 C -0,6 C 92 % 1009,2 hPa 0,0 l/m 0 min 0 min 32 W/m 9,7 km/h (2 Bft) 93,62 %
16.12.2018 11:42 -0,1 C 0,0 C -0,6 C 92 % 1009,3 hPa 0,0 l/m 0 min 0 min 33 W/m 12,9 km/h (3 Bft) 95,74 %
16.12.2018 11:44 -0,1 C 0,0 C -0,6 C 92 % 1009,3 hPa 0,0 l/m 0 min 0 min 32 W/m 12,9 km/h (3 Bft) 93,62 %
16.12.2018 11:46 -0,1 C 0,0 C -0,6 C 92 % 1009,2 hPa 0,0 l/m 0 min 0 min 30 W/m 16,1 km/h (3 Bft) 95,74 %
16.12.2018 11:48 -0,1 C 0,0 C -0,6 C 92 % 1009,3 hPa 0,0 l/m 0 min 0 min 35 W/m 12,9 km/h (3 Bft) 93,62 %
16.12.2018 11:50 -0,1 C 0,0 C -0,6 C 92 % 1009,2 hPa 0,0 l/m 0 min 0 min 51 W/m 19,3 km/h (3 Bft) 95,65 %
16.12.2018 11:52 -0,1 C 0,0 C -0,6 C 92 % 1009,1 hPa 0,0 l/m 0 min 0 min 60 W/m 22,5 km/h (4 Bft) 93,62 %
16.12.2018 11:54 -0,1 C 0,0 C -0,6 C 92 % 1009,0 hPa 0,0 l/m 0 min 0 min 55 W/m 9,7 km/h (2 Bft) 95,74 %
16.12.2018 11:56 -0,1 C 0,0 C -0,6 C 92 % 1009,1 hPa 0,0 l/m 0 min 0 min 54 W/m 12,9 km/h (3 Bft) 95,74 %
16.12.2018 11:58 -0,1 C 0,0 C -0,6 C 92 % 1009,0 hPa 0,0 l/m 0 min 0 min 52 W/m 12,9 km/h (3 Bft) 95,74 %
16.12.2018 12:00 -0,1 C 0,0 C -0,6 C 92 % 1009,1 hPa 0,0 l/m 0 min 0 min 51 W/m 12,9 km/h (3 Bft) 93,62 %
16.12.2018 12:02 -0,1 C 0,0 C -0,6 C 92 % 1009,0 hPa 0,0 l/m 0 min 0 min 49 W/m 12,9 km/h (3 Bft) 95,65 %
16.12.2018 12:04 0,0 C 0,0 C -0,6 C 92 % 1009,0 hPa 0,0 l/m 0 min 0 min 37 W/m 9,7 km/h (2 Bft) 93,62 %
16.12.2018 12:08 0,0 C 0,0 C -0,6 C 92 % 1009,1 hPa 0,0 l/m 0 min 0 min 43 W/m 22,5 km/h (4 Bft) 95,74 %
16.12.2018 12:10 0,0 C 0,0 C -0,6 C 92 % 1009,0 hPa 0,0 l/m 0 min 0 min 51 W/m 9,7 km/h (2 Bft) 93,62 %
16.12.2018 12:12 0,0 C 0,0 C -0,6 C 92 % 1008,9 hPa 0,0 l/m 0 min 0 min 50 W/m 9,7 km/h (2 Bft) 95,74 %
16.12.2018 12:14 0,0 C 0,0 C -0,6 C 92 % 1008,9 hPa 0,0 l/m 0 min 0 min 50 W/m 16,1 km/h (3 Bft) 93,48 %
16.12.2018 12:16 0,1 C 0,0 C -0,6 C 92 % 1008,8 hPa 0,0 l/m 0 min 0 min 47 W/m 16,1 km/h (3 Bft) 97,87 %
16.12.2018 12:18 0,1 C 0,0 C -0,6 C 92 % 1008,9 hPa 0,0 l/m 0 min 0 min 48 W/m 19,3 km/h (3 Bft) 95,74 %
16.12.2018 12:20 0,1 C 0,0 C -0,6 C 92 % 1008,8 hPa 0,0 l/m 0 min 0 min 50 W/m 19,3 km/h (3 Bft) 95,74 %
16.12.2018 12:22 0,1 C 0,0 C -0,6 C 92 % 1008,9 hPa 0,0 l/m 0 min 0 min 58 W/m 16,1 km/h (3 Bft) 97,87 %
16.12.2018 12:24 0,1 C 0,0 C -0,6 C 92 % 1008,9 hPa 0,0 l/m 0 min 0 min 61 W/m 19,3 km/h (3 Bft) 97,83 %
16.12.2018 12:26 0,1 C 0,0 C -0,6 C 92 % 1008,9 hPa 0,0 l/m 0 min 0 min 53 W/m 16,1 km/h (3 Bft) 95,74 %
16.12.2018 12:28 0,1 C 0,0 C -0,6 C 92 % 1008,9 hPa 0,0 l/m 0 min 0 min 43 W/m 6,4 km/h (2 Bft) 95,74 %
16.12.2018 12:30 0,1 C 0,0 C -0,6 C 92 % 1008,9 hPa 0,0 l/m 0 min 0 min 39 W/m 19,3 km/h (3 Bft) 95,74 %
16.12.2018 12:32 0,1 C 0,0 C -0,6 C 92 % 1008,9 hPa 0,0 l/m 0 min 0 min 37 W/m 12,9 km/h (3 Bft) 95,74 %
16.12.2018 12:34 0,1 C 0,0 C -0,6 C 92 % 1008,9 hPa 0,0 l/m 0 min 0 min 37 W/m 16,1 km/h (3 Bft) 93,62 %
16.12.2018 12:36 0,1 C 0,0 C -0,6 C 92 % 1008,9 hPa 0,0 l/m 0 min 0 min 39 W/m 16,1 km/h (3 Bft) 95,74 %
16.12.2018 12:38 0,1 C 0,0 C -0,6 C 92 % 1008,9 hPa 0,0 l/m 0 min 0 min 39 W/m 12,9 km/h (3 Bft) 97,83 %
16.12.2018 12:40 0,1 C 0,0 C -0,6 C 92 % 1009,0 hPa 0,0 l/m 0 min 0 min 42 W/m 22,5 km/h (4 Bft) 95,74 %
16.12.2018 12:42 0,1 C 0,0 C -0,6 C 92 % 1009,0 hPa 0,0 l/m 0 min 0 min 39 W/m 19,3 km/h (3 Bft) 95,74 %
16.12.2018 12:44 0,1 C 0,0 C -0,6 C 92 % 1009,0 hPa 0,0 l/m 0 min 0 min 41 W/m 19,3 km/h (3 Bft) 93,62 %
16.12.2018 12:46 0,2 C 0,0 C -0,6 C 92 % 1009,0 hPa 0,0 l/m 0 min 0 min 51 W/m 12,9 km/h (3 Bft) 97,87 %
16.12.2018 12:48 0,2 C 0,0 C -0,6 C 92 % 1008,9 hPa 0,0 l/m 0 min 0 min 51 W/m 19,3 km/h (3 Bft) 97,83 %
16.12.2018 12:50 0,2 C 0,0 C -0,6 C 92 % 1008,9 hPa 0,0 l/m 0 min 0 min 44 W/m 16,1 km/h (3 Bft) 93,62 %
16.12.2018 12:52 0,2 C 0,0 C -0,6 C 93 % 1008,8 hPa 0,0 l/m 0 min 0 min 42 W/m 16,1 km/h (3 Bft) 97,87 %
16.12.2018 12:54 0,2 C 0,0 C -0,6 C 93 % 1008,8 hPa 0,0 l/m 0 min 0 min 46 W/m 16,1 km/h (3 Bft) 97,87 %
16.12.2018 12:56 0,2 C 0,0 C -0,6 C 92 % 1008,9 hPa 0,0 l/m 0 min 0 min 53 W/m 22,5 km/h (4 Bft) 97,87 %
16.12.2018 12:58 0,2 C 0,0 C -0,6 C 92 % 1008,8 hPa 0,0 l/m 0 min 0 min 59 W/m 22,5 km/h (4 Bft) 97,87 %
16.12.2018 13:00 0,2 C 0,0 C -0,6 C 93 % 1008,8 hPa 0,0 l/m 0 min 0 min 61 W/m 12,9 km/h (3 Bft) 95,65 %
16.12.2018 13:02 0,2 C 0,0 C -0,6 C 93 % 1008,9 hPa 0,0 l/m 0 min 0 min 53 W/m 12,9 km/h (3 Bft) 91,49 %
16.12.2018 13:04 0,2 C 0,0 C -0,6 C 93 % 1008,9 hPa 0,0 l/m 0 min 0 min 50 W/m 16,1 km/h (3 Bft) 97,87 %
16.12.2018 13:06 0,2 C 0,0 C -0,6 C 93 % 1008,8 hPa 0,0 l/m 0 min 0 min 48 W/m 12,9 km/h (3 Bft) 97,87 %
16.12.2018 13:08 0,2 C 0,0 C -0,6 C 93 % 1008,8 hPa 0,0 l/m 0 min 0 min 47 W/m 9,7 km/h (2 Bft) 97,87 %
16.12.2018 13:10 0,2 C 0,0 C -0,6 C 93 % 1008,9 hPa 0,0 l/m 0 min 0 min 51 W/m 9,7 km/h (2 Bft) 95,74 %
16.12.2018 13:12 0,2 C 0,0 C -0,6 C 93 % 1008,9 hPa 0,0 l/m 0 min 0 min 50 W/m 9,7 km/h (2 Bft) 97,83 %
16.12.2018 13:14 0,2 C 0,0 C -0,6 C 93 % 1008,8 hPa 0,0 l/m 0 min 0 min 50 W/m 9,7 km/h (2 Bft) 97,87 %
16.12.2018 13:16 0,3 C 0,0 C -0,6 C 93 % 1008,9 hPa 0,0 l/m 0 min 0 min 52 W/m 9,7 km/h (2 Bft) 97,87 %
16.12.2018 13:18 0,3 C 0,0 C -0,6 C 93 % 1008,9 hPa 0,0 l/m 0 min 0 min 49 W/m 0,0 km/h (0 Bft) 97,87 %
16.12.2018 13:20 0,3 C 0,0 C -0,6 C 93 % 1009,0 hPa 0,0 l/m 0 min 0 min 45 W/m 3,2 km/h (1 Bft) 97,87 %
16.12.2018 13:22 0,3 C 0,0 C -0,6 C 93 % 1008,9 hPa 0,0 l/m 0 min 0 min 44 W/m 9,7 km/h (2 Bft) 95,74 %
16.12.2018 13:24 0,3 C 0,0 C -0,6 C 93 % 1008,8 hPa 0,0 l/m 0 min 0 min 43 W/m 12,9 km/h (3 Bft) 100,00 %
16.12.2018 13:26 0,3 C 0,0 C -0,6 C 93 % 1008,8 hPa 0,0 l/m 0 min 0 min 41 W/m 19,3 km/h (3 Bft) 100,00 %
16.12.2018 13:28 0,3 C 0,0 C -0,6 C 93 % 1008,8 hPa 0,0 l/m 0 min 0 min 40 W/m 9,7 km/h (2 Bft) 100,00 %
16.12.2018 13:30 0,3 C 0,0 C -0,6 C 93 % 1008,9 hPa 0,0 l/m 0 min 0 min 42 W/m 9,7 km/h (2 Bft) 97,87 %
16.12.2018 13:32 0,4 C 0,0 C -0,6 C 93 % 1008,8 hPa 0,0 l/m 0 min 0 min 42 W/m 9,7 km/h (2 Bft) 100,00 %
16.12.2018 13:34 0,4 C 0,0 C -0,6 C 93 % 1008,9 hPa 0,0 l/m 0 min 0 min 44 W/m 12,9 km/h (3 Bft) 100,00 %
16.12.2018 13:36 0,4 C 0,6 C -0,6 C 93 % 1008,9 hPa 0,0 l/m 0 min 0 min 47 W/m 9,7 km/h (2 Bft) 100,00 %
16.12.2018 13:38 0,4 C 0,6 C 0,0 C 93 % 1008,9 hPa 0,0 l/m 0 min 0 min 51 W/m 12,9 km/h (3 Bft) 97,87 %
16.12.2018 13:40 0,4 C 0,6 C 0,0 C 93 % 1008,9 hPa 0,0 l/m 0 min 0 min 51 W/m 12,9 km/h (3 Bft) 100,00 %
16.12.2018 13:42 0,4 C 0,6 C 0,0 C 93 % 1008,8 hPa 0,0 l/m 0 min 0 min 48 W/m 16,1 km/h (3 Bft) 97,87 %
16.12.2018 13:44 0,4 C 0,6 C 0,0 C 93 % 1009,0 hPa 0,0 l/m 0 min 0 min 46 W/m 6,4 km/h (2 Bft) 97,87 %
16.12.2018 13:46 0,5 C 0,6 C 0,0 C 93 % 1009,1 hPa 0,0 l/m 0 min 0 min 44 W/m 9,7 km/h (2 Bft) 100,00 %
16.12.2018 13:48 0,5 C 0,6 C 0,0 C 94 % 1009,1 hPa 0,0 l/m 0 min 0 min 43 W/m 6,4 km/h (2 Bft) 93,62 %
16.12.2018 13:50 0,5 C 0,6 C 0,0 C 94 % 1009,1 hPa 0,0 l/m 0 min 0 min 40 W/m 6,4 km/h (2 Bft) 100,00 %
16.12.2018 13:52 0,5 C 0,6 C 0,0 C 94 % 1009,1 hPa 0,0 l/m 0 min 0 min 34 W/m 3,2 km/h (1 Bft) 100,00 %
16.12.2018 13:54 0,5 C 0,6 C 0,0 C 94 % 1009,2 hPa 0,0 l/m 0 min 0 min 33 W/m 6,4 km/h (2 Bft) 100,00 %
16.12.2018 13:56 0,5 C 0,6 C 0,0 C 94 % 1009,3 hPa 0,0 l/m 0 min 0 min 29 W/m 0,0 km/h (0 Bft) 100,00 %
16.12.2018 13:58 0,5 C 0,6 C 0,0 C 94 % 1009,3 hPa 0,0 l/m 0 min 0 min 26 W/m 0,0 km/h (0 Bft) 97,83 %
16.12.2018 14:00 0,5 C 0,6 C 0,0 C 94 % 1009,2 hPa 0,0 l/m 0 min 0 min 27 W/m 3,2 km/h (1 Bft) 100,00 %
16.12.2018 14:02 0,5 C 0,6 C 0,0 C 94 % 1009,2 hPa 0,0 l/m 0 min 0 min 31 W/m 12,9 km/h (3 Bft) 100,00 %
16.12.2018 14:04 0,5 C 0,6 C 0,0 C 94 % 1009,2 hPa 0,0 l/m 0 min 0 min 33 W/m 12,9 km/h (3 Bft) 100,00 %
16.12.2018 14:06 0,5 C 0,6 C 0,0 C 94 % 1009,1 hPa 0,0 l/m 0 min 0 min 34 W/m 12,9 km/h (3 Bft) 97,87 %
16.12.2018 14:08 0,5 C 0,6 C 0,0 C 94 % 1009,1 hPa 0,0 l/m 0 min 0 min 39 W/m 9,7 km/h (2 Bft) 97,87 %
16.12.2018 14:10 0,5 C 0,6 C 0,0 C 94 % 1009,2 hPa 0,0 l/m 0 min 0 min 40 W/m 3,2 km/h (1 Bft) 97,83 %
16.12.2018 14:12 0,5 C 0,6 C 0,0 C 94 % 1009,2 hPa 0,0 l/m 0 min 0 min 36 W/m 6,4 km/h (2 Bft) 97,87 %
16.12.2018 14:14 0,5 C 0,6 C 0,0 C 94 % 1009,2 hPa 0,0 l/m 0 min 0 min 35 W/m 6,4 km/h (2 Bft) 97,87 %
16.12.2018 14:16 0,5 C 0,6 C 0,0 C 94 % 1009,2 hPa 0,0 l/m 0 min 0 min 32 W/m 19,3 km/h (3 Bft) 97,87 %
16.12.2018 14:18 0,6 C 0,6 C 0,0 C 94 % 1009,1 hPa 0,0 l/m 0 min 0 min 33 W/m 9,7 km/h (2 Bft) 97,87 %
16.12.2018 14:20 0,6 C 0,6 C 0,0 C 94 % 1009,2 hPa 0,0 l/m 0 min 0 min 41 W/m 9,7 km/h (2 Bft) 93,62 %
16.12.2018 14:22 0,6 C 0,6 C 0,0 C 93 % 1009,2 hPa 0,0 l/m 0 min 0 min 44 W/m 16,1 km/h (3 Bft) 97,83 %
16.12.2018 14:24 0,6 C 0,6 C 0,0 C 93 % 1009,1 hPa 0,0 l/m 0 min 0 min 44 W/m 16,1 km/h (3 Bft) 97,87 %
16.12.2018 14:26 0,6 C 0,6 C 0,0 C 93 % 1009,1 hPa 0,0 l/m 0 min 0 min 42 W/m 9,7 km/h (2 Bft) 97,87 %
16.12.2018 14:28 0,6 C 0,6 C 0,0 C 93 % 1009,2 hPa 0,0 l/m 0 min 0 min 42 W/m 12,9 km/h (3 Bft) 95,74 %
16.12.2018 14:30 0,6 C 0,6 C 0,0 C 93 % 1009,2 hPa 0,0 l/m 0 min 0 min 43 W/m 12,9 km/h (3 Bft) 97,87 %
16.12.2018 14:32 0,7 C 0,6 C 0,0 C 93 % 1009,1 hPa 0,0 l/m 0 min 0 min 47 W/m 9,7 km/h (2 Bft) 97,87 %
16.12.2018 14:34 0,7 C 0,6 C 0,0 C 93 % 1009,1 hPa 0,0 l/m 0 min 0 min 46 W/m 6,4 km/h (2 Bft) 97,83 %
16.12.2018 14:36 0,7 C 0,6 C 0,0 C 93 % 1009,0 hPa 0,0 l/m 0 min 0 min 47 W/m 9,7 km/h (2 Bft) 97,87 %
16.12.2018 14:38 0,7 C 0,6 C 0,0 C 93 % 1009,0 hPa 0,0 l/m 0 min 0 min 49 W/m 16,1 km/h (3 Bft) 95,74 %
16.12.2018 14:40 0,7 C 0,6 C 0,0 C 93 % 1008,9 hPa 0,0 l/m 0 min 0 min 53 W/m 16,1 km/h (3 Bft) 97,87 %
16.12.2018 14:42 0,7 C 0,6 C 0,0 C 93 % 1008,9 hPa 0,0 l/m 0 min 0 min 64 W/m 12,9 km/h (3 Bft) 97,87 %
16.12.2018 14:44 0,7 C 1,1 C 0,0 C 93 % 1009,0 hPa 0,0 l/m 0 min 0 min 72 W/m 16,1 km/h (3 Bft) 97,83 %
16.12.2018 14:46 0,7 C 0,6 C 0,0 C 93 % 1009,0 hPa 0,0 l/m 0 min 0 min 59 W/m 12,9 km/h (3 Bft) 97,87 %
16.12.2018 14:48 0,8 C 0,6 C 0,0 C 93 % 1008,9 hPa 0,0 l/m 0 min 0 min 43 W/m 12,9 km/h (3 Bft) 97,87 %
16.12.2018 14:50 0,8 C 0,6 C 0,0 C 94 % 1008,9 hPa 0,0 l/m 0 min 0 min 29 W/m 12,9 km/h (3 Bft) 97,87 %
16.12.2018 14:52 0,8 C 0,6 C 0,0 C 94 % 1009,0 hPa 0,0 l/m 0 min 0 min 24 W/m 9,7 km/h (2 Bft) 97,87 %
16.12.2018 14:54 0,8 C 0,6 C 0,0 C 94 % 1009,0 hPa 0,0 l/m 0 min 0 min 26 W/m 12,9 km/h (3 Bft) 100,00 %
16.12.2018 14:56 0,8 C 0,6 C 0,0 C 94 % 1008,9 hPa 0,0 l/m 0 min 0 min 29 W/m 0,0 km/h (0 Bft) 97,83 %
16.12.2018 14:58 0,8 C 0,6 C 0,0 C 94 % 1008,8 hPa 0,0 l/m 0 min 0 min 29 W/m 12,9 km/h (3 Bft) 100,00 %
16.12.2018 15:00 0,8 C 0,6 C 0,0 C 94 % 1008,9 hPa 0,0 l/m 0 min 0 min 26 W/m 12,9 km/h (3 Bft) 97,87 %
16.12.2018 15:02 0,8 C 0,6 C 0,0 C 94 % 1008,9 hPa 0,0 l/m 0 min 0 min 31 W/m 9,7 km/h (2 Bft) 95,74 %
16.12.2018 15:04 0,8 C 0,6 C 0,0 C 94 % 1008,9 hPa 0,0 l/m 0 min 0 min 40 W/m 16,1 km/h (3 Bft) 100,00 %
16.12.2018 15:06 0,9 C 0,6 C 0,0 C 94 % 1009,0 hPa 0,0 l/m 0 min 0 min 40 W/m 3,2 km/h (1 Bft) 100,00 %
16.12.2018 15:08 0,9 C 0,6 C 0,0 C 94 % 1009,0 hPa 0,0 l/m 0 min 0 min 42 W/m 12,9 km/h (3 Bft) 100,00 %
16.12.2018 15:10 0,9 C 0,6 C 0,0 C 94 % 1009,0 hPa 0,0 l/m 0 min 0 min 47 W/m 16,1 km/h (3 Bft) 100,00 %
16.12.2018 15:12 0,9 C 0,6 C 0,0 C 94 % 1009,0 hPa 0,0 l/m 0 min 0 min 47 W/m 6,4 km/h (2 Bft) 95,74 %
16.12.2018 15:14 0,9 C 0,6 C 0,0 C 94 % 1009,0 hPa 0,0 l/m 0 min 0 min 35 W/m 12,9 km/h (3 Bft) 95,74 %
16.12.2018 15:16 0,9 C 0,6 C 0,0 C 93 % 1009,0 hPa 0,0 l/m 0 min 0 min 29 W/m 25,7 km/h (4 Bft) 93,62 %
16.12.2018 15:18 0,9 C 0,6 C 0,0 C 93 % 1009,1 hPa 0,0 l/m 0 min 0 min 37 W/m 6,4 km/h (2 Bft) 95,74 %
16.12.2018 15:20 0,9 C 0,6 C 0,0 C 93 % 1009,1 hPa 0,0 l/m 0 min 0 min 50 W/m 16,1 km/h (3 Bft) 95,65 %
16.12.2018 15:22 0,9 C 1,1 C 0,0 C 93 % 1009,0 hPa 0,0 l/m 0 min 0 min 60 W/m 6,4 km/h (2 Bft) 95,74 %
16.12.2018 15:24 0,9 C 1,1 C 0,0 C 93 % 1009,0 hPa 0,0 l/m 2 min 0 min 66 W/m 16,1 km/h (3 Bft) 95,74 %
16.12.2018 15:26 0,9 C 1,1 C 0,6 C 93 % 1009,1 hPa 0,0 l/m 2 min 0 min 64 W/m 6,4 km/h (2 Bft) 93,62 %
16.12.2018 15:28 0,9 C 1,1 C 0,6 C 93 % 1009,1 hPa 0,0 l/m 2 min 0 min 63 W/m 12,9 km/h (3 Bft) 93,62 %
16.12.2018 15:30 0,9 C 1,1 C 0,6 C 93 % 1009,1 hPa 0,0 l/m 0 min 0 min 54 W/m 16,1 km/h (3 Bft) 91,49 %
16.12.2018 15:32 0,9 C 1,1 C 0,6 C 93 % 1009,1 hPa 0,0 l/m 0 min 0 min 46 W/m 16,1 km/h (3 Bft) 93,48 %
16.12.2018 15:34 0,9 C 1,1 C 0,6 C 93 % 1009,0 hPa 0,0 l/m 0 min 0 min 40 W/m 12,9 km/h (3 Bft) 95,74 %
16.12.2018 15:36 1,0 C 1,1 C 0,0 C 93 % 1009,1 hPa 0,0 l/m 0 min 0 min 36 W/m 16,1 km/h (3 Bft) 95,74 %
16.12.2018 15:38 1,0 C 1,1 C 0,0 C 93 % 1009,1 hPa 0,0 l/m 0 min 0 min 30 W/m 16,1 km/h (3 Bft) 95,74 %
16.12.2018 15:40 1,0 C 1,1 C 0,0 C 93 % 1009,2 hPa 0,0 l/m 0 min 0 min 24 W/m 16,1 km/h (3 Bft) 89,36 %
16.12.2018 15:42 1,0 C 1,1 C 0,0 C 93 % 1009,2 hPa 0,0 l/m 0 min 0 min 21 W/m 9,7 km/h (2 Bft) 95,65 %
16.12.2018 15:44 1,0 C 1,1 C 0,0 C 93 % 1009,2 hPa 0,0 l/m 0 min 0 min 19 W/m 3,2 km/h (1 Bft) 95,74 %
16.12.2018 15:46 1,0 C 1,1 C 0,0 C 93 % 1009,3 hPa 0,0 l/m 0 min 0 min 15 W/m 0,0 km/h (0 Bft) 95,74 %
16.12.2018 15:48 1,1 C 0,6 C 0,0 C 93 % 1009,3 hPa 0,0 l/m 0 min 0 min 12 W/m 0,0 km/h (0 Bft) 91,49 %
16.12.2018 15:50 1,1 C 0,6 C 0,0 C 93 % 1009,3 hPa 0,0 l/m 0 min 0 min 12 W/m 0,0 km/h (0 Bft) 93,62 %
16.12.2018 15:52 1,1 C 0,6 C 0,0 C 93 % 1009,2 hPa 0,0 l/m 0 min 0 min 16 W/m 3,2 km/h (1 Bft) 87,23 %
16.12.2018 15:54 1,1 C 0,6 C 0,0 C 93 % 1009,3 hPa 0,0 l/m 0 min 0 min 15 W/m 12,9 km/h (3 Bft) 95,74 %
16.12.2018 15:56 1,1 C 0,6 C 0,0 C 93 % 1009,4 hPa 0,0 l/m 0 min 0 min 14 W/m 3,2 km/h (1 Bft) 97,83 %
16.12.2018 15:58 1,1 C 0,6 C 0,0 C 93 % 1009,4 hPa 0,0 l/m 0 min 0 min 14 W/m 6,4 km/h (2 Bft) 97,87 %
16.12.2018 16:00 1,1 C 0,6 C 0,0 C 93 % 1009,4 hPa 0,0 l/m 0 min 0 min 14 W/m 3,2 km/h (1 Bft) 97,87 %
16.12.2018 16:02 1,1 C 0,6 C 0,0 C 93 % 1009,4 hPa 0,0 l/m 0 min 0 min 14 W/m 3,2 km/h (1 Bft) 97,87 %
16.12.2018 16:04 1,1 C 0,6 C 0,0 C 93 % 1009,4 hPa 0,0 l/m 0 min 0 min 12 W/m 6,4 km/h (2 Bft) 97,87 %
16.12.2018 16:06 1,1 C 0,6 C 0,0 C 93 % 1009,4 hPa 0,0 l/m 0 min 0 min 11 W/m 9,7 km/h (2 Bft) 97,87 %
16.12.2018 16:08 1,1 C 0,6 C 0,0 C 93 % 1009,5 hPa 0,0 l/m 0 min 0 min 9 W/m 3,2 km/h (1 Bft) 97,83 %
16.12.2018 16:10 1,1 C 0,6 C 0,0 C 93 % 1009,5 hPa 0,0 l/m 0 min 0 min 9 W/m 0,0 km/h (0 Bft) 95,74 %
16.12.2018 16:12 1,1 C 0,6 C 0,0 C 93 % 1009,6 hPa 0,0 l/m 0 min 0 min 8 W/m 0,0 km/h (0 Bft) 100,00 %
16.12.2018 16:14 1,1 C 0,6 C 0,0 C 93 % 1009,6 hPa 0,0 l/m 0 min 0 min 7 W/m 6,4 km/h (2 Bft) 100,00 %
16.12.2018 16:16 1,1 C 0,6 C 0,0 C 93 % 1009,6 hPa 0,0 l/m 0 min 0 min 5 W/m 9,7 km/h (2 Bft) 97,87 %
16.12.2018 16:18 1,1 C 0,6 C 0,0 C 93 % 1009,6 hPa 0,0 l/m 0 min 0 min 5 W/m 3,2 km/h (1 Bft) 97,83 %
16.12.2018 16:20 1,1 C 0,6 C 0,0 C 93 % 1009,7 hPa 0,0 l/m 0 min 0 min 5 W/m 0,0 km/h (0 Bft) 97,87 %
16.12.2018 16:22 1,1 C 0,6 C 0,0 C 93 % 1009,7 hPa 0,0 l/m 0 min 0 min 1 W/m 6,4 km/h (2 Bft) 100,00 %
16.12.2018 16:24 1,1 C 0,6 C 0,0 C 93 % 1009,7 hPa 0,0 l/m 0 min 0 min 0 W/m 9,7 km/h (2 Bft) 95,74 %
16.12.2018 16:26 1,1 C 0,6 C 0,0 C 93 % 1009,7 hPa 0,0 l/m 0 min 0 min 0 W/m 9,7 km/h (2 Bft) 100,00 %
16.12.2018 16:28 1,1 C 0,6 C 0,0 C 93 % 1009,7 hPa 0,0 l/m 0 min 0 min 0 W/m 12,9 km/h (3 Bft) 100,00 %
16.12.2018 16:30 1,1 C 0,6 C 0,0 C 93 % 1009,7 hPa 0,0 l/m 0 min 0 min 0 W/m 12,9 km/h (3 Bft) 100,00 %
16.12.2018 16:32 1,1 C 0,6 C 0,0 C 93 % 1009,6 hPa 0,0 l/m 0 min 0 min 0 W/m 6,4 km/h (2 Bft) 100,00 %
16.12.2018 16:34 1,1 C 0,6 C 0,0 C 93 % 1009,6 hPa 0,0 l/m 0 min 0 min 0 W/m 3,2 km/h (1 Bft) 97,87 %
16.12.2018 16:36 1,1 C 0,6 C 0,0 C 93 % 1009,7 hPa 0,0 l/m 0 min 0 min 0 W/m 3,2 km/h (1 Bft) 97,87 %
16.12.2018 16:38 1,1 C 0,6 C 0,0 C 93 % 1009,7 hPa 0,0 l/m 0 min 0 min 0 W/m 9,7 km/h (2 Bft) 100,00 %
16.12.2018 16:40 1,1 C 0,6 C 0,0 C 93 % 1009,6 hPa 0,0 l/m 0 min 0 min 0 W/m 9,7 km/h (2 Bft) 100,00 %
16.12.2018 16:42 1,1 C 0,6 C 0,0 C 93 % 1009,7 hPa 0,0 l/m 0 min 0 min 0 W/m 0,0 km/h (0 Bft) 100,00 %
16.12.2018 16:44 1,1 C 0,6 C 0,0 C 93 % 1009,7 hPa 0,0 l/m 0 min 0 min 0 W/m 6,4 km/h (2 Bft) 100,00 %
16.12.2018 16:46 1,1 C 0,6 C 0,0 C 93 % 1009,6 hPa 0,0 l/m 0 min 0 min 0 W/m 6,4 km/h (2 Bft) 95,74 %
16.12.2018 16:48 1,1 C 0,6 C 0,0 C 93 % 1009,6 hPa 0,0 l/m 0 min 0 min 0 W/m 6,4 km/h (2 Bft) 97,87 %
16.12.2018 16:50 1,1 C 0,6 C 0,0 C 93 % 1009,6 hPa 0,0 l/m 0 min 0 min 0 W/m 9,7 km/h (2 Bft) 97,87 %
16.12.2018 16:52 1,1 C 0,6 C 0,0 C 93 % 1009,7 hPa 0,0 l/m 0 min 0 min 0 W/m 3,2 km/h (1 Bft) 97,87 %
16.12.2018 16:54 1,1 C 0,6 C 0,0 C 93 % 1009,8 hPa 0,0 l/m 0 min 0 min 0 W/m 6,4 km/h (2 Bft) 97,83 %
16.12.2018 16:56 1,1 C 0,6 C 0,0 C 93 % 1009,7 hPa 0,0 l/m 0 min 0 min 0 W/m 0,0 km/h (0 Bft) 95,74 %
16.12.2018 16:58 1,1 C 0,6 C 0,0 C 93 % 1009,7 hPa 0,0 l/m 0 min 0 min 0 W/m 9,7 km/h (2 Bft) 95,74 %
16.12.2018 17:00 1,1 C 0,6 C 0,0 C 93 % 1009,8 hPa 0,0 l/m 0 min 0 min 0 W/m 6,4 km/h (2 Bft) 95,74 %
16.12.2018 17:02 1,1 C 0,6 C 0,0 C 93 % 1009,8 hPa 0,0 l/m 0 min 0 min 0 W/m 3,2 km/h (1 Bft) 97,87 %
16.12.2018 17:04 1,1 C 0,6 C 0,0 C 93 % 1009,7 hPa 0,0 l/m 0 min 0 min 0 W/m 0,0 km/h (0 Bft) 97,83 %
16.12.2018 17:06 1,2 C 0,6 C 0,0 C 93 % 1009,8 hPa 0,0 l/m 0 min 0 min 0 W/m 3,2 km/h (1 Bft) 97,87 %
16.12.2018 17:08 1,1 C 0,6 C 0,0 C 93 % 1009,8 hPa 0,0 l/m 0 min 0 min 0 W/m 3,2 km/h (1 Bft) 97,87 %
16.12.2018 17:10 1,2 C 0,6 C 0,0 C 93 % 1009,8 hPa 0,0 l/m 0 min 0 min 0 W/m 9,7 km/h (2 Bft) 97,87 %
16.12.2018 17:12 1,2 C 0,6 C 0,0 C 93 % 1009,8 hPa 0,0 l/m 0 min 0 min 0 W/m 9,7 km/h (2 Bft) 97,87 %
16.12.2018 17:14 1,2 C 0,6 C 0,0 C 93 % 1009,8 hPa 0,0 l/m 0 min 0 min 0 W/m 9,7 km/h (2 Bft) 95,74 %
16.12.2018 17:16 1,2 C 0,6 C 0,0 C 93 % 1009,7 hPa 0,0 l/m 0 min 0 min 0 W/m 6,4 km/h (2 Bft) 97,83 %
16.12.2018 17:18 1,2 C 0,6 C 0,0 C 93 % 1009,7 hPa 0,0 l/m 0 min 0 min 0 W/m 9,7 km/h (2 Bft) 97,87 %
16.12.2018 17:20 1,2 C 0,6 C 0,0 C 93 % 1009,8 hPa 0,0 l/m 0 min 0 min 0 W/m 3,2 km/h (1 Bft) 95,74 %
16.12.2018 17:22 1,2 C 1,1 C 0,0 C 93 % 1009,8 hPa 0,0 l/m 0 min 0 min 0 W/m 0,0 km/h (0 Bft) 97,87 %
16.12.2018 17:24 1,2 C 1,1 C 0,0 C 93 % 1009,9 hPa 0,0 l/m 0 min 0 min 0 W/m 0,0 km/h (0 Bft) 95,74 %
16.12.2018 17:26 1,2 C 1,1 C 0,0 C 93 % 1009,8 hPa 0,0 l/m 0 min 0 min 0 W/m 3,2 km/h (1 Bft) 95,74 %
16.12.2018 17:28 1,2 C 1,1 C 0,0 C 93 % 1009,8 hPa 0,0 l/m 0 min 0 min 0 W/m 9,7 km/h (2 Bft) 97,83 %
16.12.2018 17:30 1,2 C 1,1 C 0,0 C 93 % 1009,8 hPa 0,0 l/m 0 min 0 min 0 W/m 6,4 km/h (2 Bft) 95,74 %
16.12.2018 17:32 1,2 C 1,1 C 0,0 C 94 % 1009,9 hPa 0,0 l/m 0 min 0 min 0 W/m 6,4 km/h (2 Bft) 95,74 %
16.12.2018 17:34 1,2 C 1,1 C 0,0 C 94 % 1009,9 hPa 0,0 l/m 0 min 0 min 0 W/m 6,4 km/h (2 Bft) 97,87 %
16.12.2018 17:36 1,2 C 1,1 C 0,0 C 94 % 1009,9 hPa 0,0 l/m 0 min 0 min 0 W/m 3,2 km/h (1 Bft) 97,87 %
16.12.2018 17:38 1,2 C 1,1 C 0,6 C 94 % 1009,9 hPa 0,0 l/m 0 min 0 min 0 W/m 6,4 km/h (2 Bft) 95,74 %
16.12.2018 17:40 1,2 C 1,1 C 0,6 C 94 % 1010,0 hPa 0,0 l/m 0 min 0 min 0 W/m 3,2 km/h (1 Bft) 97,83 %
16.12.2018 17:42 1,3 C 1,1 C 0,6 C 94 % 1010,0 hPa 0,0 l/m 0 min 0 min 0 W/m 0,0 km/h (0 Bft) 89,36 %
16.12.2018 17:44 1,3 C 1,1 C 0,6 C 94 % 1010,0 hPa 0,0 l/m 0 min 0 min 0 W/m 0,0 km/h (0 Bft) 100,00 %
16.12.2018 17:46 1,3 C 1,1 C 0,0 C 94 % 1009,9 hPa 0,0 l/m 0 min 0 min 0 W/m 3,2 km/h (1 Bft) 91,49 %
16.12.2018 17:48 1,3 C 1,1 C 0,0 C 94 % 1009,9 hPa 0,0 l/m 0 min 0 min 0 W/m 3,2 km/h (1 Bft) 97,87 %
16.12.2018 17:50 1,3 C 1,1 C 0,0 C 94 % 1009,9 hPa 0,0 l/m 0 min 0 min 0 W/m 0,0 km/h (0 Bft) 95,74 %
16.12.2018 17:52 1,3 C 1,1 C 0,6 C 94 % 1009,9 hPa 0,0 l/m 0 min 0 min 0 W/m 3,2 km/h (1 Bft) 97,83 %
16.12.2018 17:54 1,3 C 1,1 C 0,0 C 94 % 1010,0 hPa 0,0 l/m 0 min 0 min 0 W/m 9,7 km/h (2 Bft) 97,87 %
16.12.2018 17:56 1,3 C 1,1 C 0,6 C 94 % 1009,9 hPa 0,0 l/m 0 min 0 min 0 W/m 0,0 km/h (0 Bft) 97,87 %
16.12.2018 17:58 1,3 C 1,1 C 0,6 C 94 % 1009,9 hPa 0,0 l/m 0 min 0 min 0 W/m 0,0 km/h (0 Bft) 97,87 %
16.12.2018 18:00 1,3 C 1,1 C 0,6 C 94 % 1009,9 hPa 0,0 l/m 0 min 0 min 0 W/m 12,9 km/h (3 Bft) 97,87 %
16.12.2018 18:02 1,3 C 1,1 C 0,6 C 94 % 1009,9 hPa 0,0 l/m 0 min 0 min 0 W/m 9,7 km/h (2 Bft) 95,65 %
16.12.2018 18:04 1,3 C 1,1 C 0,6 C 94 % 1009,9 hPa 0,0 l/m 0 min 0 min 0 W/m 12,9 km/h (3 Bft) 93,62 %
16.12.2018 18:08 1,3 C 1,1 C 0,6 C 94 % 1009,9 hPa 0,0 l/m 0 min 0 min 0 W/m 6,4 km/h (2 Bft) 97,87 %
16.12.2018 18:10 1,4 C 1,1 C 0,6 C 94 % 1010,0 hPa 0,0 l/m 0 min 0 min 0 W/m 6,4 km/h (2 Bft) 97,87 %
16.12.2018 18:12 1,4 C 1,1 C 0,6 C 94 % 1010,0 hPa 0,0 l/m 0 min 0 min 0 W/m 0,0 km/h (0 Bft) 95,74 %
16.12.2018 18:14 1,4 C 1,1 C 0,6 C 94 % 1010,0 hPa 0,0 l/m 0 min 0 min 0 W/m 0,0 km/h (0 Bft) 95,65 %
16.12.2018 18:16 1,4 C 1,1 C 0,6 C 94 % 1010,0 hPa 0,0 l/m 0 min 0 min 0 W/m 3,2 km/h (1 Bft) 97,87 %
16.12.2018 18:18 1,4 C 1,1 C 0,6 C 94 % 1010,0 hPa 0,0 l/m 0 min 0 min 0 W/m 0,0 km/h (0 Bft) 97,87 %
16.12.2018 18:20 1,4 C 1,1 C 0,6 C 94 % 1010,1 hPa 0,0 l/m 0 min 0 min 0 W/m 3,2 km/h (1 Bft) 97,87 %
16.12.2018 18:22 1,4 C 1,1 C 0,6 C 94 % 1010,0 hPa 0,0 l/m 0 min 0 min 0 W/m 6,4 km/h (2 Bft) 97,87 %
16.12.2018 18:24 1,4 C 1,1 C 0,6 C 94 % 1010,1 hPa 0,0 l/m 0 min 0 min 0 W/m 9,7 km/h (2 Bft) 97,87 %
16.12.2018 18:26 1,5 C 1,1 C 0,6 C 94 % 1010,1 hPa 0,0 l/m 0 min 0 min 0 W/m 0,0 km/h (0 Bft) 95,65 %
16.12.2018 18:28 1,5 C 1,1 C 0,6 C 94 % 1010,1 hPa 0,0 l/m 0 min 0 min 0 W/m 0,0 km/h (0 Bft) 97,87 %
16.12.2018 18:30 1,5 C 1,1 C 0,6 C 94 % 1010,2 hPa 0,0 l/m 0 min 0 min 0 W/m 0,0 km/h (0 Bft) 97,87 %
16.12.2018 18:32 1,5 C 1,1 C 0,6 C 94 % 1010,1 hPa 0,0 l/m 0 min 0 min 0 W/m 0,0 km/h (0 Bft) 100,00 %
16.12.2018 18:34 1,5 C 1,1 C 0,6 C 94 % 1010,1 hPa 0,0 l/m 0 min 0 min 0 W/m 0,0 km/h (0 Bft) 97,87 %
16.12.2018 18:36 1,5 C 1,1 C 0,6 C 94 % 1010,1 hPa 0,0 l/m 0 min 0 min 0 W/m 6,4 km/h (2 Bft) 100,00 %
16.12.2018 18:38 1,5 C 1,1 C 0,6 C 94 % 1010,1 hPa 0,0 l/m 0 min 0 min 0 W/m 6,4 km/h (2 Bft) 100,00 %
16.12.2018 18:40 1,5 C 1,1 C 0,6 C 94 % 1010,1 hPa 0,0 l/m 0 min 0 min 0 W/m 0,0 km/h (0 Bft) 97,87 %
16.12.2018 18:42 1,5 C 1,1 C 0,6 C 94 % 1010,2 hPa 0,0 l/m 0 min 0 min 0 W/m 9,7 km/h (2 Bft) 100,00 %
16.12.2018 18:44 1,5 C 1,1 C 0,6 C 94 % 1010,2 hPa 0,0 l/m 0 min 0 min 0 W/m 6,4 km/h (2 Bft) 100,00 %
16.12.2018 18:46 1,5 C 1,1 C 0,6 C 94 % 1010,2 hPa 0,0 l/m 0 min 0 min 0 W/m 0,0 km/h (0 Bft) 97,87 %
16.12.2018 18:48 1,5 C 1,1 C 0,6 C 94 % 1010,2 hPa 0,0 l/m 0 min 0 min 0 W/m 0,0 km/h (0 Bft) 100,00 %
16.12.2018 18:50 1,5 C 1,1 C 0,6 C 94 % 1010,2 hPa 0,0 l/m 0 min 0 min 0 W/m 6,4 km/h (2 Bft) 100,00 %
16.12.2018 18:52 1,6 C 1,1 C 0,6 C 94 % 1010,2 hPa 0,0 l/m 0 min 0 min 0 W/m 0,0 km/h (0 Bft) 97,87 %
16.12.2018 18:54 1,5 C 1,1 C 0,6 C 94 % 1010,2 hPa 0,0 l/m 0 min 0 min 0 W/m 0,0 km/h (0 Bft) 100,00 %
16.12.2018 18:56 1,5 C 1,1 C 0,6 C 94 % 1010,2 hPa 0,0 l/m 0 min 0 min 0 W/m 0,0 km/h (0 Bft) 97,87 %
16.12.2018 18:58 1,6 C 1,1 C 0,6 C 94 % 1010,3 hPa 0,0 l/m 0 min 0 min 0 W/m 0,0 km/h (0 Bft) 95,74 %
16.12.2018 19:00 1,5 C 1,1 C 0,6 C 94 % 1010,2 hPa 0,0 l/m 0 min 0 min 0 W/m 0,0 km/h (0 Bft) 97,87 %
16.12.2018 19:02 1,6 C 1,1 C 0,6 C 94 % 1010,3 hPa 0,0 l/m 0 min 0 min 0 W/m 0,0 km/h (0 Bft) 97,83 %
16.12.2018 19:04 1,6 C 1,1 C 0,6 C 94 % 1010,3 hPa 0,0 l/m 0 min 0 min 0 W/m 3,2 km/h (1 Bft) 97,87 %
16.12.2018 19:06 1,6 C 1,1 C 0,6 C 94 % 1010,4 hPa 0,0 l/m 0 min 0 min 0 W/m 0,0 km/h (0 Bft) 97,87 %
16.12.2018 19:08 1,6 C 1,1 C 0,6 C 94 % 1010,4 hPa 0,0 l/m 0 min 0 min 0 W/m 0,0 km/h (0 Bft) 97,87 %
16.12.2018 19:10 1,5 C 1,1 C 0,6 C 94 % 1010,4 hPa 0,0 l/m 0 min 0 min 0 W/m 0,0 km/h (0 Bft) 97,87 %
16.12.2018 19:12 1,6 C 1,1 C 0,6 C 94 % 1010,4 hPa 0,0 l/m 0 min 0 min 0 W/m 0,0 km/h (0 Bft) 97,83 %
16.12.2018 19:14 1,6 C 1,1 C 0,6 C 94 % 1010,4 hPa 0,0 l/m 0 min 0 min 0 W/m 0,0 km/h (0 Bft) 97,87 %
16.12.2018 19:16 1,6 C 1,1 C 0,6 C 94 % 1010,4 hPa 0,0 l/m 0 min 0 min 0 W/m 6,4 km/h (2 Bft) 97,87 %
16.12.2018 19:18 1,6 C 1,1 C 0,6 C 94 % 1010,4 hPa 0,0 l/m 0 min 0 min 0 W/m 0,0 km/h (0 Bft) 97,87 %
16.12.2018 19:20 1,6 C 1,1 C 0,6 C 94 % 1010,4 hPa 0,0 l/m 0 min 0 min 0 W/m 0,0 km/h (0 Bft) 97,87 %
16.12.2018 19:22 1,6 C 1,1 C 0,6 C 94 % 1010,4 hPa 0,0 l/m 0 min 0 min 0 W/m 3,2 km/h (1 Bft) 97,87 %
16.12.2018 19:24 1,6 C 1,1 C 0,6 C 94 % 1010,3 hPa 0,0 l/m 0 min 0 min 0 W/m 0,0 km/h (0 Bft) 97,87 %
16.12.2018 19:26 1,6 C 1,1 C 0,6 C 94 % 1010,4 hPa 0,0 l/m 0 min 0 min 0 W/m 0,0 km/h (0 Bft) 97,83 %
16.12.2018 19:28 1,6 C 1,1 C 0,6 C 94 % 1010,4 hPa 0,0 l/m 0 min 0 min 0 W/m 9,7 km/h (2 Bft) 97,87 %
16.12.2018 19:30 1,6 C 1,1 C 0,6 C 94 % 1010,4 hPa 0,0 l/m 0 min 0 min 0 W/m 6,4 km/h (2 Bft) 95,74 %
16.12.2018 19:32 1,6 C 1,1 C 0,6 C 94 % 1010,4 hPa 0,0 l/m 0 min 0 min 0 W/m 3,2 km/h (1 Bft) 95,74 %
16.12.2018 19:34 1,6 C 1,1 C 0,6 C 94 % 1010,5 hPa 0,0 l/m 0 min 0 min 0 W/m 3,2 km/h (1 Bft) 93,62 %
16.12.2018 19:36 1,6 C 1,1 C 0,6 C 94 % 1010,5 hPa 0,0 l/m 0 min 0 min 0 W/m 6,4 km/h (2 Bft) 95,65 %
16.12.2018 19:38 1,6 C 1,1 C 0,6 C 94 % 1010,5 hPa 0,0 l/m 0 min 0 min 0 W/m 3,2 km/h (1 Bft) 93,62 %
16.12.2018 19:40 1,6 C 1,1 C 0,6 C 94 % 1010,4 hPa 0,0 l/m 0 min 0 min 0 W/m 3,2 km/h (1 Bft) 95,74 %
16.12.2018 19:42 1,6 C 1,1 C 0,6 C 94 % 1010,5 hPa 0,0 l/m 0 min 0 min 0 W/m 9,7 km/h (2 Bft) 95,74 %
16.12.2018 19:44 1,6 C 1,1 C 0,6 C 94 % 1010,5 hPa 0,0 l/m 0 min 0 min 0 W/m 9,7 km/h (2 Bft) 95,74 %
16.12.2018 19:46 1,6 C 1,1 C 0,6 C 94 % 1010,4 hPa 0,0 l/m 0 min 0 min 0 W/m 19,3 km/h (3 Bft) 95,74 %
16.12.2018 19:48 1,6 C 1,1 C 0,6 C 94 % 1010,5 hPa 0,0 l/m 0 min 0 min 0 W/m 9,7 km/h (2 Bft) 93,88 %
16.12.2018 19:50 1,6 C 1,1 C 0,6 C 94 % 1010,4 hPa 0,0 l/m 0 min 0 min 0 W/m 19,3 km/h (3 Bft) 97,37 %
16.12.2018 19:54 1,6 C 1,1 C 0,6 C 94 % 1010,4 hPa 0,0 l/m 0 min 0 min 0 W/m 0,0 km/h (0 Bft) 100,00 %
16.12.2018 19:56 1,6 C 1,1 C 0,6 C 94 % 1010,5 hPa 0,0 l/m 0 min 0 min 0 W/m 0,0 km/h (0 Bft) 100,00 %
16.12.2018 19:58 1,6 C 1,1 C 0,6 C 94 % 1010,6 hPa 0,0 l/m 0 min 0 min 0 W/m 9,7 km/h (2 Bft) 93,62 %
16.12.2018 20:00 1,6 C 1,1 C 0,6 C 94 % 1010,4 hPa 0,2 l/m 0 min 0 min 0 W/m 0,0 km/h (0 Bft) 95,74 %
16.12.2018 20:02 1,7 C 1,1 C 0,6 C 94 % 1010,4 hPa 0,0 l/m 0 min 0 min 0 W/m 0,0 km/h (0 Bft) 95,74 %
16.12.2018 20:04 1,7 C 1,1 C 0,6 C 94 % 1010,6 hPa 0,0 l/m 0 min 0 min 0 W/m 0,0 km/h (0 Bft) 93,48 %
16.12.2018 20:06 1,7 C 1,1 C 0,6 C 94 % 1010,5 hPa 0,0 l/m 0 min 0 min 0 W/m 0,0 km/h (0 Bft) 95,74 %
16.12.2018 20:08 1,7 C 1,1 C 0,6 C 94 % 1010,6 hPa 0,0 l/m 0 min 0 min 0 W/m 0,0 km/h (0 Bft) 91,49 %
16.12.2018 20:10 1,7 C 1,1 C 0,6 C 94 % 1010,5 hPa 0,0 l/m 0 min 0 min 0 W/m 0,0 km/h (0 Bft) 97,87 %
16.12.2018 20:12 1,7 C 1,1 C 0,6 C 94 % 1010,6 hPa 0,0 l/m 0 min 0 min 0 W/m 12,9 km/h (3 Bft) 97,87 %
16.12.2018 20:14 1,7 C 1,1 C 0,6 C 94 % 1010,6 hPa 0,0 l/m 0 min 0 min 0 W/m 0,0 km/h (0 Bft) 97,87 %
16.12.2018 20:16 1,7 C 1,1 C 0,6 C 94 % 1010,6 hPa 0,0 l/m 0 min 0 min 0 W/m 3,2 km/h (1 Bft) 97,87 %
16.12.2018 20:18 1,7 C 1,7 C 0,6 C 94 % 1010,6 hPa 0,0 l/m 0 min 0 min 0 W/m 9,7 km/h (2 Bft) 95,65 %
16.12.2018 20:20 1,7 C 1,7 C 0,6 C 94 % 1010,6 hPa 0,0 l/m 0 min 0 min 0 W/m 0,0 km/h (0 Bft) 100,00 %
16.12.2018 20:22 1,7 C 1,7 C 0,6 C 94 % 1010,6 hPa 0,0 l/m 0 min 0 min 0 W/m 3,2 km/h (1 Bft) 97,87 %
16.12.2018 20:24 1,7 C 1,7 C 0,6 C 94 % 1010,7 hPa 0,0 l/m 0 min 0 min 0 W/m 0,0 km/h (0 Bft) 95,74 %
16.12.2018 20:26 1,7 C 1,7 C 0,6 C 94 % 1010,6 hPa 0,0 l/m 0 min 0 min 0 W/m 3,2 km/h (1 Bft) 97,87 %
16.12.2018 20:28 1,7 C 1,7 C 0,6 C 94 % 1010,7 hPa 0,0 l/m 0 min 0 min 0 W/m 0,0 km/h (0 Bft) 97,83 %
16.12.2018 20:30 1,8 C 1,7 C 0,6 C 94 % 1010,7 hPa 0,0 l/m 0 min 0 min 0 W/m 0,0 km/h (0 Bft) 97,87 %
16.12.2018 20:32 1,8 C 1,1 C 0,6 C 94 % 1010,6 hPa 0,0 l/m 0 min 0 min 0 W/m 0,0 km/h (0 Bft) 95,74 %
16.12.2018 20:34 1,7 C 1,1 C 0,6 C 94 % 1010,7 hPa 0,0 l/m 0 min 0 min 0 W/m 0,0 km/h (0 Bft) 95,74 %
16.12.2018 20:36 1,8 C 1,1 C 0,6 C 94 % 1010,7 hPa 0,0 l/m 0 min 0 min 0 W/m 0,0 km/h (0 Bft) 95,74 %
16.12.2018 20:38 1,8 C 1,1 C 0,6 C 94 % 1010,8 hPa 0,0 l/m 0 min 0 min 0 W/m 0,0 km/h (0 Bft) 97,87 %
16.12.2018 20:40 1,8 C 1,1 C 0,6 C 94 % 1010,8 hPa 0,0 l/m 0 min 0 min 0 W/m 0,0 km/h (0 Bft) 97,83 %
16.12.2018 20:42 1,8 C 1,1 C 0,6 C 94 % 1010,8 hPa 0,0 l/m 0 min 0 min 0 W/m 0,0 km/h (0 Bft) 97,87 %
16.12.2018 20:44 1,8 C 1,1 C 0,6 C 94 % 1010,8 hPa 0,0 l/m 0 min 0 min 0 W/m 0,0 km/h (0 Bft) 97,87 %
16.12.2018 20:46 1,7 C 1,1 C 0,6 C 94 % 1010,8 hPa 0,0 l/m 0 min 0 min 0 W/m 0,0 km/h (0 Bft) 93,62 %
16.12.2018 20:48 1,7 C 1,1 C 0,6 C 94 % 1010,9 hPa 0,0 l/m 0 min 0 min 0 W/m 0,0 km/h (0 Bft) 97,87 %
16.12.2018 20:50 1,7 C 1,1 C 0,6 C 94 % 1010,9 hPa 0,0 l/m 0 min 0 min 0 W/m 0,0 km/h (0 Bft) 95,74 %
16.12.2018 20:52 1,7 C 1,1 C 0,6 C 94 % 1011,0 hPa 0,0 l/m 0 min 0 min 0 W/m 0,0 km/h (0 Bft) 97,83 %
16.12.2018 20:54 1,7 C 1,1 C 0,6 C 94 % 1011,0 hPa 0,0 l/m 0 min 0 min 0 W/m 0,0 km/h (0 Bft) 97,87 %
16.12.2018 20:56 1,7 C 1,1 C 0,6 C 94 % 1011,0 hPa 0,0 l/m 0 min 0 min 0 W/m 0,0 km/h (0 Bft) 97,87 %
16.12.2018 20:58 1,7 C 1,1 C 0,6 C 94 % 1010,9 hPa 0,0 l/m 0 min 0 min 0 W/m 0,0 km/h (0 Bft) 97,87 %
16.12.2018 21:00 1,7 C 1,1 C 0,6 C 94 % 1011,0 hPa 0,0 l/m 0 min 0 min 0 W/m 6,4 km/h (2 Bft) 97,87 %
16.12.2018 21:02 1,7 C 1,1 C 0,6 C 94 % 1011,0 hPa 0,0 l/m 0 min 0 min 0 W/m 0,0 km/h (0 Bft) 97,87 %
16.12.2018 21:04 1,7 C 1,1 C 0,6 C 94 % 1010,9 hPa 0,0 l/m 0 min 0 min 0 W/m 0,0 km/h (0 Bft) 95,65 %
16.12.2018 21:06 1,7 C 1,1 C 0,6 C 94 % 1010,9 hPa 0,0 l/m 0 min 0 min 0 W/m 0,0 km/h (0 Bft) 97,87 %
16.12.2018 21:08 1,7 C 1,1 C 0,6 C 94 % 1010,9 hPa 0,0 l/m 0 min 0 min 0 W/m 0,0 km/h (0 Bft) 97,87 %
16.12.2018 21:10 1,7 C 1,1 C 0,6 C 94 % 1010,9 hPa 0,0 l/m 0 min 0 min 0 W/m 0,0 km/h (0 Bft) 100,00 %
16.12.2018 21:12 1,7 C 1,1 C 0,6 C 94 % 1011,0 hPa 0,0 l/m 0 min 0 min 0 W/m 0,0 km/h (0 Bft) 97,87 %
16.12.2018 21:14 1,7 C 1,1 C 0,6 C 94 % 1011,0 hPa 0,0 l/m 0 min 0 min 0 W/m 0,0 km/h (0 Bft) 100,00 %
16.12.2018 21:16 1,7 C 1,1 C 0,6 C 94 % 1011,0 hPa 0,0 l/m 0 min 0 min 0 W/m 0,0 km/h (0 Bft) 100,00 %
16.12.2018 21:18 1,7 C 1,1 C 0,6 C 94 % 1011,1 hPa 0,0 l/m 0 min 0 min 0 W/m 0,0 km/h (0 Bft) 97,87 %
16.12.2018 21:20 1,7 C 1,1 C 0,6 C 94 % 1011,2 hPa 0,0 l/m 0 min 0 min 0 W/m 0,0 km/h (0 Bft) 100,00 %
16.12.2018 21:23 1,7 C 1,1 C 0,6 C 94 % 1011,2 hPa 0,0 l/m 0 min 0 min 0 W/m 0,0 km/h (0 Bft) 100,00 %
16.12.2018 21:24 1,7 C 1,1 C 0,6 C 94 % 1011,2 hPa 0,0 l/m 0 min 0 min 0 W/m 0,0 km/h (0 Bft) 100,00 %
16.12.2018 21:26 1,7 C 1,1 C 0,6 C 94 % 1011,2 hPa 0,0 l/m 0 min 0 min 0 W/m 0,0 km/h (0 Bft) 100,00 %
16.12.2018 21:28 1,7 C 1,1 C 0,6 C 94 % 1011,2 hPa 0,0 l/m 0 min 0 min 0 W/m 0,0 km/h (0 Bft) 100,00 %
16.12.2018 21:30 1,7 C 1,1 C 0,6 C 94 % 1011,2 hPa 0,0 l/m 0 min 0 min 0 W/m 0,0 km/h (0 Bft) 100,00 %
16.12.2018 21:32 1,7 C 1,1 C 0,6 C 94 % 1011,2 hPa 0,0 l/m 0 min 0 min 0 W/m 0,0 km/h (0 Bft) 100,00 %
16.12.2018 21:34 1,7 C 1,1 C 0,6 C 94 % 1011,3 hPa 0,0 l/m 0 min 0 min 0 W/m 0,0 km/h (0 Bft) 100,00 %
16.12.2018 21:36 1,7 C 1,1 C 0,6 C 94 % 1011,3 hPa 0,0 l/m 0 min 0 min 0 W/m 0,0 km/h (0 Bft) 100,00 %
16.12.2018 21:38 1,7 C 1,1 C 0,6 C 94 % 1011,3 hPa 0,2 l/m 0 min 0 min 0 W/m 0,0 km/h (0 Bft) 100,00 %
16.12.2018 21:40 1,7 C 1,1 C 0,6 C 94 % 1011,3 hPa 0,0 l/m 0 min 0 min 0 W/m 3,2 km/h (1 Bft) 100,00 %
16.12.2018 21:42 1,7 C 1,1 C 0,6 C 94 % 1011,3 hPa 0,0 l/m 0 min 0 min 0 W/m 0,0 km/h (0 Bft) 100,00 %
16.12.2018 21:44 1,7 C 1,1 C 0,6 C 94 % 1011,4 hPa 0,0 l/m 0 min 0 min 0 W/m 0,0 km/h (0 Bft) 100,00 %
16.12.2018 21:46 1,7 C 1,1 C 0,6 C 94 % 1011,4 hPa 0,0 l/m 0 min 0 min 0 W/m 0,0 km/h (0 Bft) 100,00 %
16.12.2018 21:48 1,7 C 1,1 C 0,6 C 94 % 1011,4 hPa 0,0 l/m 0 min 0 min 0 W/m 0,0 km/h (0 Bft) 97,87 %
16.12.2018 21:50 1,7 C 1,1 C 0,6 C 94 % 1011,4 hPa 0,0 l/m 0 min 0 min 0 W/m 0,0 km/h (0 Bft) 95,74 %
16.12.2018 21:52 1,7 C 1,1 C 0,6 C 94 % 1011,4 hPa 0,0 l/m 0 min 0 min 0 W/m 0,0 km/h (0 Bft) 97,87 %
16.12.2018 21:54 1,7 C 1,1 C 0,6 C 94 % 1011,4 hPa 0,0 l/m 0 min 0 min 0 W/m 0,0 km/h (0 Bft) 100,00 %
16.12.2018 21:56 1,7 C 1,1 C 0,6 C 94 % 1011,4 hPa 0,0 l/m 0 min 0 min 0 W/m 0,0 km/h (0 Bft) 100,00 %
16.12.2018 21:58 1,7 C 1,1 C 0,6 C 94 % 1011,4 hPa 0,0 l/m 0 min 0 min 0 W/m 12,9 km/h (3 Bft) 100,00 %
16.12.2018 22:00 1,7 C 1,1 C 0,6 C 94 % 1011,4 hPa 0,0 l/m 0 min 0 min 0 W/m 3,2 km/h (1 Bft) 100,00 %
16.12.2018 22:02 1,7 C 1,1 C 0,6 C 94 % 1011,3 hPa 0,0 l/m 0 min 0 min 0 W/m 3,2 km/h (1 Bft) 97,87 %
16.12.2018 22:04 1,7 C 1,1 C 0,6 C 94 % 1011,4 hPa 0,0 l/m 0 min 0 min 0 W/m 0,0 km/h (0 Bft) 97,87 %
16.12.2018 22:06 1,7 C 1,1 C 0,6 C 94 % 1011,4 hPa 0,0 l/m 0 min 0 min 0 W/m 0,0 km/h (0 Bft) 100,00 %
16.12.2018 22:08 1,7 C 1,1 C 0,6 C 94 % 1011,4 hPa 0,0 l/m 0 min 0 min 0 W/m 0,0 km/h (0 Bft) 100,00 %
16.12.2018 22:10 1,7 C 1,1 C 0,6 C 94 % 1011,4 hPa 0,0 l/m 0 min 0 min 0 W/m 9,7 km/h (2 Bft) 100,00 %
16.12.2018 22:12 1,7 C 1,1 C 0,6 C 94 % 1011,3 hPa 0,0 l/m 0 min 0 min 0 W/m 0,0 km/h (0 Bft) 97,87 %
16.12.2018 22:14 1,7 C 1,1 C 0,6 C 94 % 1011,4 hPa 0,0 l/m 0 min 0 min 0 W/m 3,2 km/h (1 Bft) 97,87 %
16.12.2018 22:16 1,7 C 1,1 C 0,6 C 94 % 1011,4 hPa 0,0 l/m 0 min 0 min 0 W/m 0,0 km/h (0 Bft) 95,74 %
16.12.2018 22:18 1,7 C 1,1 C 0,6 C 94 % 1011,3 hPa 0,0 l/m 0 min 0 min 0 W/m 6,4 km/h (2 Bft) 97,83 %
16.12.2018 22:20 1,7 C 1,1 C 0,6 C 94 % 1011,3 hPa 0,0 l/m 0 min 0 min 0 W/m 0,0 km/h (0 Bft) 95,74 %
16.12.2018 22:22 1,7 C 1,1 C 0,6 C 94 % 1011,4 hPa 0,0 l/m 0 min 0 min 0 W/m 0,0 km/h (0 Bft) 97,87 %
16.12.2018 22:24 1,7 C 1,1 C 0,6 C 94 % 1011,3 hPa 0,0 l/m 0 min 0 min 0 W/m 0,0 km/h (0 Bft) 95,74 %
16.12.2018 22:26 1,7 C 1,1 C 0,6 C 94 % 1011,3 hPa 0,0 l/m 0 min 0 min 0 W/m 6,4 km/h (2 Bft) 97,87 %
16.12.2018 22:28 1,6 C 1,1 C 0,6 C 94 % 1011,2 hPa 0,0 l/m 0 min 0 min 0 W/m 3,2 km/h (1 Bft) 95,74 %
16.12.2018 22:30 1,6 C 1,1 C 0,6 C 94 % 1011,2 hPa 0,0 l/m 0 min 0 min 0 W/m 0,0 km/h (0 Bft) 97,83 %
16.12.2018 22:32 1,6 C 1,1 C 0,6 C 94 % 1011,3 hPa 0,0 l/m 0 min 0 min 0 W/m 0,0 km/h (0 Bft) 97,87 %
16.12.2018 22:34 1,6 C 1,1 C 0,6 C 94 % 1011,3 hPa 0,0 l/m 0 min 0 min 0 W/m 0,0 km/h (0 Bft) 97,87 %
16.12.2018 22:36 1,6 C 1,1 C 0,6 C 94 % 1011,3 hPa 0,0 l/m 0 min 0 min 0 W/m 0,0 km/h (0 Bft) 95,74 %
16.12.2018 22:38 1,5 C 1,1 C 0,0 C 94 % 1011,3 hPa 0,0 l/m 0 min 0 min 0 W/m 0,0 km/h (0 Bft) 95,74 %
16.12.2018 22:40 1,5 C 1,1 C 0,6 C 94 % 1011,4 hPa 0,0 l/m 0 min 0 min 0 W/m 3,2 km/h (1 Bft) 95,74 %
16.12.2018 22:42 1,5 C 1,1 C 0,0 C 94 % 1011,4 hPa 0,2 l/m 0 min 0 min 0 W/m 3,2 km/h (1 Bft) 93,48 %
16.12.2018 22:44 1,5 C 1,1 C 0,0 C 94 % 1011,4 hPa 0,0 l/m 0 min 0 min 0 W/m 0,0 km/h (0 Bft) 93,62 %
16.12.2018 22:46 1,4 C 0,6 C 0,0 C 94 % 1011,5 hPa 0,0 l/m 0 min 0 min 0 W/m 0,0 km/h (0 Bft) 91,49 %
16.12.2018 22:48 1,4 C 1,1 C 0,0 C 94 % 1011,6 hPa 0,0 l/m 0 min 0 min 0 W/m 0,0 km/h (0 Bft) 95,74 %
16.12.2018 22:50 1,4 C 1,1 C 0,0 C 94 % 1011,5 hPa 0,0 l/m 0 min 0 min 0 W/m 0,0 km/h (0 Bft) 95,74 %
16.12.2018 22:52 1,4 C 1,1 C 0,0 C 94 % 1011,5 hPa 0,0 l/m 0 min 0 min 0 W/m 6,4 km/h (2 Bft) 93,62 %
16.12.2018 22:54 1,4 C 1,1 C 0,0 C 95 % 1011,6 hPa 0,0 l/m 0 min 0 min 0 W/m 0,0 km/h (0 Bft) 93,48 %
16.12.2018 22:56 1,4 C 1,1 C 0,0 C 94 % 1011,6 hPa 0,0 l/m 0 min 0 min 0 W/m 3,2 km/h (1 Bft) 95,74 %
16.12.2018 22:58 1,4 C 1,1 C 0,6 C 94 % 1011,5 hPa 0,0 l/m 0 min 0 min 0 W/m 9,7 km/h (2 Bft) 95,74 %
16.12.2018 23:00 1,4 C 1,1 C 0,0 C 94 % 1011,6 hPa 0,0 l/m 0 min 0 min 0 W/m 3,2 km/h (1 Bft) 95,74 %
16.12.2018 23:02 1,4 C 1,1 C 0,0 C 94 % 1011,6 hPa 0,0 l/m 0 min 0 min 0 W/m 3,2 km/h (1 Bft) 95,74 %
16.12.2018 23:04 1,4 C 1,1 C 0,0 C 94 % 1011,6 hPa 0,0 l/m 0 min 0 min 0 W/m 0,0 km/h (0 Bft) 95,74 %
16.12.2018 23:06 1,4 C 1,1 C 0,0 C 94 % 1011,8 hPa 0,0 l/m 0 min 0 min 0 W/m 6,4 km/h (2 Bft) 95,65 %
16.12.2018 23:08 1,4 C 1,1 C 0,0 C 94 % 1011,8 hPa 0,0 l/m 0 min 0 min 0 W/m 0,0 km/h (0 Bft) 93,62 %
16.12.2018 23:10 1,4 C 1,1 C 0,0 C 94 % 1011,8 hPa 0,0 l/m 0 min 0 min 0 W/m 0,0 km/h (0 Bft) 95,74 %
16.12.2018 23:12 1,4 C 1,1 C 0,0 C 95 % 1011,9 hPa 0,0 l/m 0 min 0 min 0 W/m 3,2 km/h (1 Bft) 95,74 %
16.12.2018 23:14 1,3 C 1,1 C 0,6 C 95 % 1011,9 hPa 0,0 l/m 0 min 0 min 0 W/m 9,7 km/h (2 Bft) 95,74 %
16.12.2018 23:16 1,3 C 1,1 C 0,6 C 95 % 1011,9 hPa 0,0 l/m 0 min 0 min 0 W/m 0,0 km/h (0 Bft) 95,65 %
16.12.2018 23:18 1,3 C 1,1 C 0,6 C 95 % 1011,8 hPa 0,0 l/m 0 min 0 min 0 W/m 3,2 km/h (1 Bft) 93,62 %
16.12.2018 23:20 1,3 C 1,1 C 0,6 C 95 % 1011,9 hPa 0,0 l/m 0 min 0 min 0 W/m 16,1 km/h (3 Bft) 95,74 %
16.12.2018 23:22 1,4 C 1,1 C 0,6 C 95 % 1011,9 hPa 0,0 l/m 0 min 0 min 0 W/m 12,9 km/h (3 Bft) 93,62 %
16.12.2018 23:24 1,3 C 1,1 C 0,6 C 95 % 1011,9 hPa 0,0 l/m 0 min 0 min 0 W/m 12,9 km/h (3 Bft) 93,62 %
16.12.2018 23:26 1,3 C 1,1 C 0,0 C 95 % 1011,9 hPa 0,0 l/m 0 min 0 min 0 W/m 9,7 km/h (2 Bft) 95,74 %
16.12.2018 23:28 1,3 C 0,6 C 0,0 C 95 % 1011,8 hPa 0,0 l/m 0 min 0 min 0 W/m 0,0 km/h (0 Bft) 95,65 %
16.12.2018 23:30 1,3 C 0,6 C 0,0 C 95 % 1011,9 hPa 0,0 l/m 0 min 0 min 0 W/m 0,0 km/h (0 Bft) 95,74 %
16.12.2018 23:32 1,3 C 0,6 C 0,0 C 95 % 1012,0 hPa 0,0 l/m 0 min 0 min 0 W/m 3,2 km/h (1 Bft) 95,74 %
16.12.2018 23:34 1,3 C 0,6 C 0,0 C 95 % 1012,0 hPa 0,0 l/m 0 min 0 min 0 W/m 0,0 km/h (0 Bft) 95,74 %
16.12.2018 23:36 1,3 C 0,6 C 0,0 C 95 % 1012,1 hPa 0,0 l/m 0 min 0 min 0 W/m 3,2 km/h (1 Bft) 95,74 %
16.12.2018 23:38 1,3 C 0,6 C 0,0 C 95 % 1012,1 hPa 0,0 l/m 0 min 0 min 0 W/m 0,0 km/h (0 Bft) 95,74 %
16.12.2018 23:40 1,3 C 0,6 C 0,0 C 95 % 1012,1 hPa 0,0 l/m 0 min 0 min 0 W/m 3,2 km/h (1 Bft) 95,65 %
16.12.2018 23:42 1,3 C 0,6 C 0,0 C 95 % 1012,1 hPa 0,0 l/m 0 min 0 min 0 W/m 0,0 km/h (0 Bft) 93,62 %
16.12.2018 23:44 1,3 C 0,6 C 0,0 C 95 % 1012,1 hPa 0,0 l/m 0 min 0 min 0 W/m 0,0 km/h (0 Bft) 100,00 %
16.12.2018 23:46 1,3 C 0,6 C 0,0 C 95 % 1012,2 hPa 0,0 l/m 0 min 0 min 0 W/m 0,0 km/h (0 Bft) 100,00 %
16.12.2018 23:48 1,3 C 0,6 C 0,0 C 95 % 1012,1 hPa 0,0 l/m 0 min 0 min 0 W/m 0,0 km/h (0 Bft) 100,00 %
16.12.2018 23:50 1,3 C 0,6 C 0,0 C 95 % 1012,1 hPa 0,0 l/m 0 min 0 min 0 W/m 0,0 km/h (0 Bft) 100,00 %
16.12.2018 23:52 1,3 C 0,6 C 0,0 C 95 % 1012,1 hPa 0,0 l/m 0 min 0 min 0 W/m 3,2 km/h (1 Bft) 97,83 %
16.12.2018 23:54 1,3 C 1,1 C 0,0 C 95 % 1012,2 hPa 0,0 l/m 0 min 0 min 0 W/m 0,0 km/h (0 Bft) 100,00 %
16.12.2018 23:56 1,3 C 1,1 C 0,0 C 95 % 1012,3 hPa 0,0 l/m 0 min 0 min 0 W/m 0,0 km/h (0 Bft) 100,00 %
16.12.2018 23:58 1,3 C 1,1 C 0,0 C 95 % 1012,3 hPa 0,0 l/m 0 min 0 min 0 W/m 9,7 km/h (2 Bft) 100,00 %
_ Min-Zeit 05:56 03:32 04:14 00:20 07:58 - - - - 10:04 00:02
Minimum _ -1,4 C -1,7 C -2,2 C 75 % 1008,2 hPa - - - - 0,0 km/h (0 Bft) 86,11 %
_ Max-Zeit 20:30 20:18 15:26 06:48 23:56 20:00 15:24 03:26 14:44 00:22 01:04
Maximum _ 1,8 C 1,7 C 0,6 C 95 % 1012,3 hPa 0,2 l/m 2 min 2 min 72 W/m 51,5 km/h
S (7 Bft)
100,00 %
Durchschnitt _ 0,3 C -0,1 C -0,7 C 91 % 1009,8 hPa #0,6 l/m #6 min. #42 min. 34 W/m 15,1 km/h (3 Bft) 97,23 %
© 2018 W. Hausmann